Time,TemperatureF,DewpointF,PressureIn,WindDirection,WindDirectionDegrees,WindSpeedMPH,WindSpeedGustMPH,Humidity,HourlyPrecipIn,Conditions,Clouds,dailyrainin,SoftwareType,DateUTC
2013-01-06 00:00:00,31.5,29.7,29.97,SSW,210,7.0,14.0,93,0.00,,---,0.00,VWS V14.00,2013-01-06 05:00:00,
2013-01-06 00:01:00,31.5,29.7,29.97,SSW,210,7.0,7.0,93,0.00,,---,0.00,VWS V14.00,2013-01-06 05:01:00,
2013-01-06 00:05:00,31.5,29.7,29.97,SSW,210,7.0,7.0,93,0.00,,---,0.00,VWS V14.00,2013-01-06 05:05:00,
2013-01-06 00:08:00,31.5,29.7,29.97,SSW,210,7.0,7.0,93,0.00,,---,0.00,VWS V14.00,2013-01-06 05:08:00,
2013-01-06 00:10:00,31.5,29.7,29.97,SSW,210,7.0,7.0,93,0.00,,---,0.00,VWS V14.00,2013-01-06 05:10:00,
2013-01-06 00:11:00,31.5,29.7,29.97,SSW,210,7.0,7.0,93,0.00,,---,0.00,VWS V14.00,2013-01-06 05:11:00,
2013-01-06 00:13:00,31.5,29.7,29.97,SSW,210,7.0,7.0,93,0.00,,---,0.00,VWS V14.00,2013-01-06 05:13:00,
2013-01-06 00:15:00,31.5,29.7,29.96,SSW,210,7.0,7.0,93,0.00,,---,0.00,VWS V14.00,2013-01-06 05:15:00,
2013-01-06 00:16:00,31.5,29.7,29.96,SSW,210,7.0,7.0,93,0.00,,---,0.00,VWS V14.00,2013-01-06 05:16:00,
2013-01-06 00:18:00,31.5,29.7,29.96,SSW,210,7.0,7.0,93,0.00,,---,0.00,VWS V14.00,2013-01-06 05:18:00,
2013-01-06 00:20:00,31.5,29.7,29.96,SSW,210,7.0,7.0,93,0.00,,---,0.00,VWS V14.00,2013-01-06 05:20:00,
2013-01-06 00:21:00,31.5,29.7,29.96,SSW,210,7.0,7.0,93,0.00,,---,0.00,VWS V14.00,2013-01-06 05:21:00,
2013-01-06 00:23:00,31.5,29.7,29.96,SSW,210,7.0,7.0,93,0.00,,---,0.00,VWS V14.00,2013-01-06 05:23:00,
2013-01-06 00:25:00,31.5,29.7,29.96,SSW,210,7.0,7.0,93,0.00,,---,0.00,VWS V14.00,2013-01-06 05:25:00,
2013-01-06 00:26:00,31.5,29.7,29.96,SSW,210,7.0,7.0,93,0.00,,---,0.00,VWS V14.00,2013-01-06 05:26:00,
2013-01-06 00:28:00,31.5,29.7,29.96,SSW,210,7.0,7.0,93,0.00,,---,0.00,VWS V14.00,2013-01-06 05:28:00,
2013-01-06 00:30:00,31.5,29.7,29.95,SSW,210,7.0,7.0,93,0.00,,---,0.00,VWS V14.00,2013-01-06 05:30:00,
2013-01-06 00:31:00,31.5,29.7,29.95,SSW,210,7.0,7.0,93,0.00,,---,0.00,VWS V14.00,2013-01-06 05:31:00,
2013-01-06 00:33:00,31.5,29.7,29.95,SSW,210,7.0,7.0,93,0.00,,---,0.00,VWS V14.00,2013-01-06 05:33:00,
2013-01-06 00:35:00,31.5,29.7,29.95,SSW,210,7.0,7.0,93,0.00,,---,0.00,VWS V14.00,2013-01-06 05:35:00,
2013-01-06 00:36:00,31.5,29.7,29.95,SSW,210,7.0,7.0,93,0.00,,---,0.00,VWS V14.00,2013-01-06 05:36:00,
2013-01-06 00:39:00,31.5,29.7,29.95,SSW,210,7.0,7.0,93,0.00,,---,0.00,VWS V14.00,2013-01-06 05:39:00,
2013-01-06 00:41:00,31.5,29.7,29.95,SSW,210,7.0,7.0,93,0.00,,---,0.00,VWS V14.00,2013-01-06 05:41:00,
2013-01-06 00:42:00,31.5,29.7,29.95,SSW,210,7.0,7.0,93,0.00,,---,0.00,VWS V14.00,2013-01-06 05:42:00,
2013-01-06 00:44:00,31.5,29.7,29.95,SSW,210,7.0,7.0,93,0.00,,---,0.00,VWS V14.00,2013-01-06 05:44:00,
2013-01-06 00:46:00,31.5,29.7,29.95,SSW,210,7.0,7.0,93,0.00,,---,0.00,VWS V14.00,2013-01-06 05:46:00,
2013-01-06 00:47:00,31.5,29.7,29.95,SSW,210,7.0,7.0,93,0.00,,---,0.00,VWS V14.00,2013-01-06 05:47:00,
2013-01-06 00:49:00,31.5,29.7,29.95,SSW,210,7.0,7.0,93,0.00,,---,0.00,VWS V14.00,2013-01-06 05:49:00,
2013-01-06 00:51:00,31.5,29.7,29.95,SSW,210,7.0,7.0,93,0.00,,---,0.00,VWS V14.00,2013-01-06 05:51:00,
2013-01-06 00:52:00,31.5,29.7,29.95,SSW,210,7.0,7.0,93,0.00,,---,0.00,VWS V14.00,2013-01-06 05:52:00,
2013-01-06 00:54:00,31.5,29.7,29.95,SSW,210,7.0,7.0,93,0.00,,---,0.00,VWS V14.00,2013-01-06 05:54:00,
2013-01-06 00:56:00,31.5,29.7,29.95,SSW,210,7.0,7.0,93,0.00,,---,0.00,VWS V14.00,2013-01-06 05:56:00,
2013-01-06 00:57:00,31.5,29.7,29.95,SSW,210,7.0,7.0,93,0.00,,---,0.00,VWS V14.00,2013-01-06 05:57:00,
2013-01-06 00:58:00,31.5,29.7,29.95,SSW,210,7.0,7.0,93,0.00,,---,0.00,VWS V14.00,2013-01-06 05:58:00,
2013-01-06 00:59:00,31.5,29.7,29.95,SSW,210,7.0,7.0,93,0.00,,---,0.00,VWS V14.00,2013-01-06 05:59:00,
2013-01-06 01:01:00,31.5,29.7,29.94,SSW,210,7.0,7.0,93,0.00,,---,0.00,VWS V14.00,2013-01-06 06:01:00,
2013-01-06 01:02:00,31.5,29.7,29.94,SSW,210,7.0,7.0,93,0.00,,---,0.00,VWS V14.00,2013-01-06 06:02:00,
2013-01-06 01:03:00,31.5,29.7,29.94,SSW,210,7.0,7.0,93,0.00,,---,0.00,VWS V14.00,2013-01-06 06:03:00,
2013-01-06 01:04:00,31.5,29.7,29.94,SSW,210,7.0,7.0,93,0.00,,---,0.00,VWS V14.00,2013-01-06 06:04:00,
2013-01-06 01:06:00,31.5,29.7,29.94,SSW,210,7.0,7.0,93,0.00,,---,0.00,VWS V14.00,2013-01-06 06:06:00,
2013-01-06 01:07:00,31.5,29.7,29.94,SSW,210,7.0,7.0,93,0.00,,---,0.00,VWS V14.00,2013-01-06 06:07:00,
2013-01-06 01:08:00,31.5,29.7,29.94,SSW,210,7.0,7.0,93,0.00,,---,0.00,VWS V14.00,2013-01-06 06:08:00,
2013-01-06 01:09:00,31.5,29.7,29.94,SSW,210,7.0,7.0,93,0.00,,---,0.00,VWS V14.00,2013-01-06 06:09:00,
2013-01-06 01:12:00,32.2,30.1,29.94,SSW,209,17.0,18.0,92,0.00,,---,0.00,VWS V14.00,2013-01-06 06:12:00,
2013-01-06 01:13:00,32.2,30.1,29.94,SW,217,14.0,18.0,92,0.00,,---,0.00,VWS V14.00,2013-01-06 06:13:00,
2013-01-06 01:14:00,32.4,30.3,29.94,SSW,210,8.0,18.0,92,0.00,,---,0.00,VWS V14.00,2013-01-06 06:14:00,
2013-01-06 01:17:00,32.4,30.1,29.93,WSW,237,8.0,18.0,91,0.00,,---,0.00,VWS V14.00,2013-01-06 06:17:00,
2013-01-06 01:18:00,32.4,30.1,29.93,SSW,200,13.0,18.0,91,0.00,,---,0.00,VWS V14.00,2013-01-06 06:18:00,
2013-01-06 01:19:00,32.4,30.1,29.93,SSW,202,4.0,18.0,91,0.00,,---,0.00,VWS V14.00,2013-01-06 06:19:00,
2013-01-06 01:22:00,32.4,30.1,29.93,SSW,209,20.0,24.0,91,0.00,,---,0.00,VWS V14.00,2013-01-06 06:22:00,
2013-01-06 01:23:00,32.4,30.1,29.93,SW,216,15.0,24.0,91,0.00,,---,0.00,VWS V14.00,2013-01-06 06:23:00,
2013-01-06 01:24:00,32.4,30.1,29.93,West,267,10.0,24.0,91,0.00,,---,0.00,VWS V14.00,2013-01-06 06:24:00,
2013-01-06 01:27:00,32.4,30.1,29.93,SE,145,6.0,24.0,91,0.00,,---,0.00,VWS V14.00,2013-01-06 06:27:00,
2013-01-06 01:28:00,32.4,30.1,29.93,SSW,200,9.0,24.0,91,0.00,,---,0.00,VWS V14.00,2013-01-06 06:28:00,
2013-01-06 01:29:00,32.4,30.1,29.93,SSW,213,7.0,24.0,91,0.00,,---,0.00,VWS V14.00,2013-01-06 06:29:00,
2013-01-06 01:32:00,32.4,30.1,29.93,SW,219,8.0,24.0,91,0.00,,---,0.00,VWS V14.00,2013-01-06 06:32:00,
2013-01-06 01:33:00,32.4,29.8,29.93,SW,219,13.0,24.0,90,0.00,,---,0.00,VWS V14.00,2013-01-06 06:33:00,
2013-01-06 01:34:00,32.4,29.8,29.93,SW,215,9.0,24.0,90,0.00,,---,0.00,VWS V14.00,2013-01-06 06:34:00,
2013-01-06 01:37:00,32.4,29.8,29.93,SSW,206,11.0,24.0,90,0.00,,---,0.00,VWS V14.00,2013-01-06 06:37:00,
2013-01-06 01:38:00,32.4,29.8,29.93,SW,234,7.0,24.0,90,0.00,,---,0.00,VWS V14.00,2013-01-06 06:38:00,
2013-01-06 01:40:00,32.4,29.8,29.93,SSW,209,9.0,24.0,90,0.00,,---,0.00,VWS V14.00,2013-01-06 06:40:00,
2013-01-06 01:42:00,32.4,29.8,29.93,SSW,193,7.0,24.0,90,0.00,,---,0.00,VWS V14.00,2013-01-06 06:42:00,
2013-01-06 01:43:00,32.4,29.8,29.93,SW,215,14.0,24.0,90,0.00,,---,0.00,VWS V14.00,2013-01-06 06:43:00,
2013-01-06 01:45:00,32.4,29.8,29.92,SSW,210,8.0,24.0,90,0.00,,---,0.00,VWS V14.00,2013-01-06 06:45:00,
2013-01-06 01:48:00,32.4,29.8,29.92,SW,217,6.0,24.0,90,0.00,,---,0.00,VWS V14.00,2013-01-06 06:48:00,
2013-01-06 01:49:00,32.4,29.8,29.92,SW,220,4.0,24.0,90,0.00,,---,0.00,VWS V14.00,2013-01-06 06:49:00,
2013-01-06 01:50:00,32.4,29.8,29.92,SW,216,7.0,24.0,90,0.00,,---,0.00,VWS V14.00,2013-01-06 06:50:00,
2013-01-06 01:53:00,32.4,29.8,29.92,SW,215,10.0,24.0,90,0.00,,---,0.00,VWS V14.00,2013-01-06 06:53:00,
2013-01-06 01:54:00,32.4,29.8,29.92,SW,230,6.0,24.0,90,0.00,,---,0.00,VWS V14.00,2013-01-06 06:54:00,
2013-01-06 01:55:00,32.4,29.8,29.92,SW,217,6.0,24.0,90,0.00,,---,0.00,VWS V14.00,2013-01-06 06:55:00,
2013-01-06 01:58:00,32.4,29.5,29.92,SW,215,7.0,24.0,89,0.00,,---,0.00,VWS V14.00,2013-01-06 06:58:00,
2013-01-06 01:59:00,32.4,29.5,29.92,SW,216,6.0,24.0,89,0.00,,---,0.00,VWS V14.00,2013-01-06 06:59:00,
2013-01-06 02:00:00,32.4,29.5,29.92,SW,216,4.0,24.0,89,0.00,,---,0.00,VWS V14.00,2013-01-06 07:00:00,
2013-01-06 02:03:00,32.4,29.5,29.92,SSW,212,4.0,14.0,89,0.00,,---,0.00,VWS V14.00,2013-01-06 07:03:00,
2013-01-06 02:04:00,32.4,29.5,29.92,SSW,206,7.0,14.0,89,0.00,,---,0.00,VWS V14.00,2013-01-06 07:04:00,
2013-01-06 02:05:00,32.4,29.5,29.92,SSW,206,7.0,14.0,89,0.00,,---,0.00,VWS V14.00,2013-01-06 07:05:00,
2013-01-06 02:08:00,32.4,29.5,29.92,SSW,212,7.0,14.0,89,0.00,,---,0.00,VWS V14.00,2013-01-06 07:08:00,
2013-01-06 02:09:00,32.4,29.5,29.92,SSW,212,7.0,14.0,89,0.00,,---,0.00,VWS V14.00,2013-01-06 07:09:00,
2013-01-06 02:10:00,32.4,29.5,29.92,SSW,212,7.0,14.0,89,0.00,,---,0.00,VWS V14.00,2013-01-06 07:10:00,
2013-01-06 02:14:00,32.5,29.6,29.92,SW,236,4.0,14.0,89,0.00,,---,0.00,VWS V14.00,2013-01-06 07:14:00,
2013-01-06 02:15:00,32.5,29.6,29.91,SW,219,8.0,14.0,89,0.00,,---,0.00,VWS V14.00,2013-01-06 07:15:00,
2013-01-06 02:19:00,32.5,29.6,29.91,SW,215,6.0,14.0,89,0.00,,---,0.00,VWS V14.00,2013-01-06 07:19:00,
2013-01-06 02:20:00,32.5,29.6,29.91,SW,219,7.0,14.0,89,0.00,,---,0.00,VWS V14.00,2013-01-06 07:20:00,
2013-01-06 02:24:00,32.5,29.6,29.91,SW,216,8.0,15.0,89,0.00,,---,0.00,VWS V14.00,2013-01-06 07:24:00,
2013-01-06 02:25:00,32.5,29.6,29.91,SSW,213,14.0,15.0,89,0.00,,---,0.00,VWS V14.00,2013-01-06 07:25:00,
2013-01-06 02:29:00,32.5,29.6,29.91,SSW,209,9.0,15.0,89,0.00,,---,0.00,VWS V14.00,2013-01-06 07:29:00,
2013-01-06 02:31:00,32.5,29.6,29.91,SSW,213,2.0,15.0,89,0.00,,---,0.00,VWS V14.00,2013-01-06 07:31:00,
2013-01-06 02:34:00,32.5,29.4,29.91,SW,220,13.0,15.0,88,0.00,,---,0.00,VWS V14.00,2013-01-06 07:34:00,
2013-01-06 02:35:00,32.5,29.4,29.91,SW,224,8.0,15.0,88,0.00,,---,0.00,VWS V14.00,2013-01-06 07:35:00,
2013-01-06 02:36:00,32.5,29.4,29.91,South,191,11.0,15.0,88,0.00,,---,0.00,VWS V14.00,2013-01-06 07:36:00,
2013-01-06 02:39:00,32.5,29.4,29.91,SW,222,10.0,15.0,88,0.00,,---,0.00,VWS V14.00,2013-01-06 07:39:00,
2013-01-06 02:40:00,32.5,29.4,29.91,SW,222,10.0,15.0,88,0.00,,---,0.00,VWS V14.00,2013-01-06 07:40:00,
2013-01-06 02:41:00,32.5,29.4,29.91,SW,222,10.0,15.0,88,0.00,,---,0.00,VWS V14.00,2013-01-06 07:41:00,
2013-01-06 02:44:00,32.5,29.4,29.91,SW,222,10.0,15.0,88,0.00,,---,0.00,VWS V14.00,2013-01-06 07:44:00,
2013-01-06 02:45:00,32.5,29.4,29.91,SW,222,10.0,15.0,88,0.00,,---,0.00,VWS V14.00,2013-01-06 07:45:00,
2013-01-06 02:46:00,32.5,29.4,29.91,SW,222,10.0,15.0,88,0.00,,---,0.00,VWS V14.00,2013-01-06 07:46:00,
2013-01-06 02:49:00,32.5,29.4,29.91,SW,222,10.0,15.0,88,0.00,,---,0.00,VWS V14.00,2013-01-06 07:49:00,
2013-01-06 02:50:00,32.5,29.4,29.91,SW,222,10.0,15.0,88,0.00,,---,0.00,VWS V14.00,2013-01-06 07:50:00,
2013-01-06 02:51:00,32.5,29.4,29.91,SW,222,10.0,15.0,88,0.00,,---,0.00,VWS V14.00,2013-01-06 07:51:00,
2013-01-06 02:55:00,32.5,29.4,29.91,SW,222,10.0,15.0,88,0.00,,---,0.00,VWS V14.00,2013-01-06 07:55:00,
2013-01-06 02:56:00,32.5,29.4,29.91,SW,222,10.0,15.0,88,0.00,,---,0.00,VWS V14.00,2013-01-06 07:56:00,
2013-01-06 03:00:00,32.5,29.4,29.90,SW,222,10.0,15.0,88,0.00,,---,0.00,VWS V14.00,2013-01-06 08:00:00,
2013-01-06 03:01:00,32.5,29.4,29.90,SW,222,10.0,10.0,88,0.00,,---,0.00,VWS V14.00,2013-01-06 08:01:00,
2013-01-06 03:05:00,32.5,29.4,29.90,SW,222,10.0,10.0,88,0.00,,---,0.00,VWS V14.00,2013-01-06 08:05:00,
2013-01-06 03:06:00,32.5,29.4,29.90,SW,222,10.0,10.0,88,0.00,,---,0.00,VWS V14.00,2013-01-06 08:06:00,
2013-01-06 03:10:00,32.5,29.4,29.90,SW,222,10.0,10.0,88,0.00,,---,0.00,VWS V14.00,2013-01-06 08:10:00,
2013-01-06 03:11:00,32.5,29.4,29.90,SW,222,10.0,10.0,88,0.00,,---,0.00,VWS V14.00,2013-01-06 08:11:00,
2013-01-06 03:15:00,32.5,29.4,29.90,SW,222,10.0,10.0,88,0.00,,---,0.00,VWS V14.00,2013-01-06 08:15:00,
2013-01-06 03:16:00,32.5,29.4,29.90,SW,222,10.0,10.0,88,0.00,,---,0.00,VWS V14.00,2013-01-06 08:16:00,
2013-01-06 03:20:00,32.5,29.4,29.90,SW,222,10.0,10.0,88,0.00,,---,0.00,VWS V14.00,2013-01-06 08:20:00,
2013-01-06 03:21:00,32.5,29.4,29.90,SW,222,10.0,10.0,88,0.00,,---,0.00,VWS V14.00,2013-01-06 08:21:00,
2013-01-06 03:25:00,32.5,29.4,29.90,SW,222,10.0,10.0,88,0.00,,---,0.00,VWS V14.00,2013-01-06 08:25:00,
2013-01-06 03:26:00,32.5,29.4,29.90,SW,222,10.0,10.0,88,0.00,,---,0.00,VWS V14.00,2013-01-06 08:26:00,
2013-01-06 03:30:00,32.5,29.4,29.90,SW,222,10.0,10.0,88,0.00,,---,0.00,VWS V14.00,2013-01-06 08:30:00,
2013-01-06 03:31:00,32.5,29.4,29.90,SW,222,10.0,10.0,88,0.00,,---,0.00,VWS V14.00,2013-01-06 08:31:00,
2013-01-06 03:35:00,32.5,29.4,29.90,SW,222,10.0,10.0,88,0.00,,---,0.00,VWS V14.00,2013-01-06 08:35:00,
2013-01-06 03:36:00,32.5,29.4,29.90,SW,222,10.0,10.0,88,0.00,,---,0.00,VWS V14.00,2013-01-06 08:36:00,
2013-01-06 03:40:00,32.5,29.4,29.90,SW,222,10.0,10.0,88,0.00,,---,0.00,VWS V14.00,2013-01-06 08:40:00,
2013-01-06 03:41:00,32.5,29.4,29.90,SW,222,10.0,10.0,88,0.00,,---,0.00,VWS V14.00,2013-01-06 08:41:00,
2013-01-06 03:42:00,32.5,29.4,29.90,SW,222,10.0,10.0,88,0.00,,---,0.00,VWS V14.00,2013-01-06 08:42:00,
2013-01-06 03:46:00,32.5,29.4,29.90,SW,222,10.0,10.0,88,0.00,,---,0.00,VWS V14.00,2013-01-06 08:46:00,
2013-01-06 03:47:00,32.5,29.4,29.90,SW,222,10.0,10.0,88,0.00,,---,0.00,VWS V14.00,2013-01-06 08:47:00,
2013-01-06 03:51:00,32.5,29.4,29.90,SW,222,10.0,10.0,88,0.00,,---,0.00,VWS V14.00,2013-01-06 08:51:00,
2013-01-06 03:52:00,32.5,29.4,29.90,SW,222,10.0,10.0,88,0.00,,---,0.00,VWS V14.00,2013-01-06 08:52:00,
2013-01-06 03:56:00,32.5,29.4,29.90,SW,222,10.0,10.0,88,0.00,,---,0.00,VWS V14.00,2013-01-06 08:56:00,
2013-01-06 03:57:00,32.5,29.4,29.90,SW,222,10.0,10.0,88,0.00,,---,0.00,VWS V14.00,2013-01-06 08:57:00,
2013-01-06 04:01:00,32.5,29.4,29.89,SW,222,10.0,10.0,88,0.00,,---,0.00,VWS V14.00,2013-01-06 09:01:00,
2013-01-06 04:02:00,32.5,29.4,29.89,SW,222,10.0,10.0,88,0.00,,---,0.00,VWS V14.00,2013-01-06 09:02:00,
2013-01-06 04:06:00,32.5,29.4,29.89,SW,222,10.0,10.0,88,0.00,,---,0.00,VWS V14.00,2013-01-06 09:06:00,
2013-01-06 04:07:00,32.5,29.4,29.89,SW,222,10.0,10.0,88,0.00,,---,0.00,VWS V14.00,2013-01-06 09:07:00,
2013-01-06 04:11:00,32.5,29.4,29.89,SW,222,10.0,10.0,88,0.00,,---,0.00,VWS V14.00,2013-01-06 09:11:00,
2013-01-06 04:12:00,32.5,29.4,29.89,SW,222,10.0,10.0,88,0.00,,---,0.00,VWS V14.00,2013-01-06 09:12:00,
2013-01-06 04:16:00,32.5,29.4,29.89,SW,222,10.0,10.0,88,0.00,,---,0.00,VWS V14.00,2013-01-06 09:16:00,
2013-01-06 04:17:00,32.5,29.4,29.89,SW,222,10.0,10.0,88,0.00,,---,0.00,VWS V14.00,2013-01-06 09:17:00,
2013-01-06 04:21:00,32.5,29.4,29.89,SW,222,10.0,10.0,88,0.00,,---,0.00,VWS V14.00,2013-01-06 09:21:00,
2013-01-06 04:22:00,32.5,29.4,29.89,SW,222,10.0,10.0,88,0.00,,---,0.00,VWS V14.00,2013-01-06 09:22:00,
2013-01-06 04:23:00,32.5,29.4,29.89,SW,222,10.0,10.0,88,0.00,,---,0.00,VWS V14.00,2013-01-06 09:23:00,
2013-01-06 04:26:00,32.5,29.4,29.89,SW,222,10.0,10.0,88,0.00,,---,0.00,VWS V14.00,2013-01-06 09:26:00,
2013-01-06 04:27:00,32.5,29.4,29.89,SW,222,10.0,10.0,88,0.00,,---,0.00,VWS V14.00,2013-01-06 09:27:00,
2013-01-06 04:28:00,32.5,29.4,29.89,SW,222,10.0,10.0,88,0.00,,---,0.00,VWS V14.00,2013-01-06 09:28:00,
2013-01-06 04:31:00,32.5,29.4,29.88,SW,222,10.0,10.0,88,0.00,,---,0.00,VWS V14.00,2013-01-06 09:31:00,
2013-01-06 04:32:00,32.5,29.4,29.88,SW,222,10.0,10.0,88,0.00,,---,0.00,VWS V14.00,2013-01-06 09:32:00,
2013-01-06 04:33:00,32.5,29.4,29.88,SW,222,10.0,10.0,88,0.00,,---,0.00,VWS V14.00,2013-01-06 09:33:00,
2013-01-06 04:36:00,32.5,29.4,29.88,SW,222,10.0,10.0,88,0.00,,---,0.00,VWS V14.00,2013-01-06 09:36:00,
2013-01-06 04:37:00,32.5,29.4,29.88,SW,222,10.0,10.0,88,0.00,,---,0.00,VWS V14.00,2013-01-06 09:37:00,
2013-01-06 04:38:00,32.5,29.4,29.88,SW,222,10.0,10.0,88,0.00,,---,0.00,VWS V14.00,2013-01-06 09:38:00,
2013-01-06 04:42:00,32.5,29.4,29.88,SW,222,10.0,10.0,88,0.00,,---,0.00,VWS V14.00,2013-01-06 09:42:00,
2013-01-06 04:43:00,32.5,29.4,29.88,SW,222,10.0,10.0,88,0.00,,---,0.00,VWS V14.00,2013-01-06 09:43:00,
2013-01-06 04:47:00,32.5,29.4,29.88,SW,222,10.0,10.0,88,0.00,,---,0.00,VWS V14.00,2013-01-06 09:47:00,
2013-01-06 04:48:00,32.5,29.4,29.88,SW,222,10.0,10.0,88,0.00,,---,0.00,VWS V14.00,2013-01-06 09:48:00,
2013-01-06 04:52:00,32.5,29.4,29.88,SW,222,10.0,10.0,88,0.00,,---,0.00,VWS V14.00,2013-01-06 09:52:00,
2013-01-06 04:53:00,32.5,29.4,29.88,SW,222,10.0,10.0,88,0.00,,---,0.00,VWS V14.00,2013-01-06 09:53:00,
2013-01-06 04:57:00,32.5,29.4,29.88,SW,222,10.0,10.0,88,0.00,,---,0.00,VWS V14.00,2013-01-06 09:57:00,
2013-01-06 04:58:00,32.5,29.4,29.88,SW,222,10.0,10.0,88,0.00,,---,0.00,VWS V14.00,2013-01-06 09:58:00,
2013-01-06 05:02:00,32.5,29.4,29.87,SW,222,10.0,10.0,88,0.00,,---,0.00,VWS V14.00,2013-01-06 10:02:00,
2013-01-06 05:03:00,32.5,29.4,29.87,SW,222,10.0,10.0,88,0.00,,---,0.00,VWS V14.00,2013-01-06 10:03:00,
2013-01-06 05:07:00,32.5,29.4,29.87,SW,222,10.0,10.0,88,0.00,,---,0.00,VWS V14.00,2013-01-06 10:07:00,
2013-01-06 05:08:00,32.5,29.4,29.87,SW,222,10.0,10.0,88,0.00,,---,0.00,VWS V14.00,2013-01-06 10:08:00,
2013-01-06 05:12:00,32.5,29.4,29.87,SW,222,10.0,10.0,88,0.00,,---,0.00,VWS V14.00,2013-01-06 10:12:00,
2013-01-06 05:13:00,32.5,29.4,29.87,SW,222,10.0,10.0,88,0.00,,---,0.00,VWS V14.00,2013-01-06 10:13:00,
2013-01-06 05:17:00,32.5,29.4,29.81,SW,222,10.0,10.0,88,0.00,,---,0.00,VWS V14.00,2013-01-06 10:17:00,
2013-01-06 05:18:00,32.5,29.4,29.81,SW,222,10.0,10.0,88,0.00,,---,0.00,VWS V14.00,2013-01-06 10:18:00,
2013-01-06 05:19:00,32.5,29.4,29.81,SW,222,10.0,10.0,88,0.00,,---,0.00,VWS V14.00,2013-01-06 10:19:00,
2013-01-06 05:22:00,32.5,29.4,29.81,SW,222,10.0,10.0,88,0.00,,---,0.00,VWS V14.00,2013-01-06 10:22:00,
2013-01-06 05:23:00,32.5,29.4,29.81,SW,222,10.0,10.0,88,0.00,,---,0.00,VWS V14.00,2013-01-06 10:23:00,
2013-01-06 05:24:00,32.5,29.4,29.81,SW,222,10.0,10.0,88,0.00,,---,0.00,VWS V14.00,2013-01-06 10:24:00,
2013-01-06 05:27:00,32.5,29.4,29.81,SW,222,10.0,10.0,88,0.00,,---,0.00,VWS V14.00,2013-01-06 10:27:00,
2013-01-06 05:28:00,32.5,29.4,29.81,SW,222,10.0,10.0,88,0.00,,---,0.00,VWS V14.00,2013-01-06 10:28:00,
2013-01-06 05:29:00,32.5,29.4,29.81,SW,222,10.0,10.0,88,0.00,,---,0.00,VWS V14.00,2013-01-06 10:29:00,
2013-01-06 05:32:00,32.5,29.4,29.81,SW,222,10.0,10.0,88,0.00,,---,0.00,VWS V14.00,2013-01-06 10:32:00,
2013-01-06 05:33:00,32.5,29.4,29.81,SW,222,10.0,10.0,88,0.00,,---,0.00,VWS V14.00,2013-01-06 10:33:00,
2013-01-06 05:34:00,32.5,29.4,29.81,SW,222,10.0,10.0,88,0.00,,---,0.00,VWS V14.00,2013-01-06 10:34:00,
2013-01-06 05:38:00,32.5,29.4,29.81,SW,222,10.0,10.0,88,0.00,,---,0.00,VWS V14.00,2013-01-06 10:38:00,
2013-01-06 05:39:00,32.5,29.4,29.81,SW,222,10.0,10.0,88,0.00,,---,0.00,VWS V14.00,2013-01-06 10:39:00,
2013-01-06 05:43:00,32.5,29.4,29.81,SW,222,10.0,10.0,88,0.00,,---,0.00,VWS V14.00,2013-01-06 10:43:00,
2013-01-06 05:44:00,32.5,29.4,29.81,SW,222,10.0,10.0,88,0.00,,---,0.00,VWS V14.00,2013-01-06 10:44:00,
2013-01-06 05:48:00,32.5,29.4,29.81,SW,222,10.0,10.0,88,0.00,,---,0.00,VWS V14.00,2013-01-06 10:48:00,
2013-01-06 05:49:00,32.5,29.4,29.81,SW,222,10.0,10.0,88,0.00,,---,0.00,VWS V14.00,2013-01-06 10:49:00,
2013-01-06 05:53:00,32.5,29.4,29.81,SW,222,10.0,10.0,88,0.00,,---,0.00,VWS V14.00,2013-01-06 10:53:00,
2013-01-06 05:54:00,32.5,29.4,29.81,SW,222,10.0,10.0,88,0.00,,---,0.00,VWS V14.00,2013-01-06 10:54:00,
2013-01-06 05:58:00,32.5,29.4,29.81,SW,222,10.0,10.0,88,0.00,,---,0.00,VWS V14.00,2013-01-06 10:58:00,
2013-01-06 05:59:00,32.5,29.4,29.81,SW,222,10.0,10.0,88,0.00,,---,0.00,VWS V14.00,2013-01-06 10:59:00,
2013-01-06 06:03:00,32.5,29.4,29.81,SW,222,10.0,10.0,88,0.00,,---,0.00,VWS V14.00,2013-01-06 11:03:00,
2013-01-06 06:04:00,32.5,29.4,29.81,SW,222,10.0,10.0,88,0.00,,---,0.00,VWS V14.00,2013-01-06 11:04:00,
2013-01-06 06:08:00,32.5,29.4,29.81,SW,222,10.0,10.0,88,0.00,,---,0.00,VWS V14.00,2013-01-06 11:08:00,
2013-01-06 06:09:00,32.5,29.4,29.81,SW,222,10.0,10.0,88,0.00,,---,0.00,VWS V14.00,2013-01-06 11:09:00,
2013-01-06 06:10:00,32.5,29.4,29.81,SW,222,10.0,10.0,88,0.00,,---,0.00,VWS V14.00,2013-01-06 11:10:00,
2013-01-06 06:13:00,32.5,29.4,29.81,SW,222,10.0,10.0,88,0.00,,---,0.00,VWS V14.00,2013-01-06 11:13:00,
2013-01-06 06:14:00,32.5,29.4,29.81,SW,222,10.0,10.0,88,0.00,,---,0.00,VWS V14.00,2013-01-06 11:14:00,
2013-01-06 06:15:00,32.5,29.4,29.86,SW,222,10.0,10.0,88,0.00,,---,0.00,VWS V14.00,2013-01-06 11:15:00,
2013-01-06 06:19:00,32.5,29.4,29.86,SW,222,10.0,10.0,88,0.00,,---,0.00,VWS V14.00,2013-01-06 11:19:00,
2013-01-06 06:20:00,32.5,29.4,29.86,SW,222,10.0,10.0,88,0.00,,---,0.00,VWS V14.00,2013-01-06 11:20:00,
2013-01-06 06:24:00,32.5,29.4,29.86,SW,222,10.0,10.0,88,0.00,,---,0.00,VWS V14.00,2013-01-06 11:24:00,
2013-01-06 06:25:00,32.5,29.4,29.86,SW,222,10.0,10.0,88,0.00,,---,0.00,VWS V14.00,2013-01-06 11:25:00,
2013-01-06 06:29:00,32.5,29.4,29.86,SW,222,10.0,10.0,88,0.00,,---,0.00,VWS V14.00,2013-01-06 11:29:00,
2013-01-06 06:30:00,32.5,29.4,29.86,SW,222,10.0,10.0,88,0.00,,---,0.00,VWS V14.00,2013-01-06 11:30:00,
2013-01-06 06:34:00,32.5,29.4,29.86,SW,222,10.0,10.0,88,0.00,,---,0.00,VWS V14.00,2013-01-06 11:34:00,
2013-01-06 06:35:00,32.5,29.4,29.86,SW,222,10.0,10.0,88,0.00,,---,0.00,VWS V14.00,2013-01-06 11:35:00,
2013-01-06 06:39:00,32.5,29.4,29.86,SW,222,10.0,10.0,88,0.00,,---,0.00,VWS V14.00,2013-01-06 11:39:00,
2013-01-06 06:40:00,32.5,29.4,29.86,SW,222,10.0,10.0,88,0.00,,---,0.00,VWS V14.00,2013-01-06 11:40:00,
2013-01-06 06:44:00,32.5,29.4,29.86,SW,222,10.0,10.0,88,0.00,,---,0.00,VWS V14.00,2013-01-06 11:44:00,
2013-01-06 06:45:00,32.8,29.6,29.86,SSW,212,4.0,10.0,88,0.00,,---,0.00,VWS V14.00,2013-01-06 11:45:00,
2013-01-06 06:46:00,32.9,29.7,29.86,SSW,209,6.0,11.0,88,0.00,,---,0.00,VWS V14.00,2013-01-06 11:46:00,
2013-01-06 06:49:00,32.9,30.0,29.86,SSW,210,8.0,11.0,89,0.00,,---,0.00,VWS V14.00,2013-01-06 11:49:00,
2013-01-06 06:50:00,32.9,30.0,29.86,WSW,241,2.0,11.0,89,0.00,,---,0.00,VWS V14.00,2013-01-06 11:50:00,
2013-01-06 06:51:00,32.9,30.0,29.86,WSW,240,4.0,11.0,89,0.00,,---,0.00,VWS V14.00,2013-01-06 11:51:00,
2013-01-06 06:54:00,32.9,30.0,29.86,SW,217,4.0,11.0,89,0.00,,---,0.00,VWS V14.00,2013-01-06 11:54:00,
2013-01-06 06:55:00,32.9,30.0,29.86,SW,217,4.0,11.0,89,0.00,,---,0.00,VWS V14.00,2013-01-06 11:55:00,
2013-01-06 06:56:00,32.9,30.0,29.86,SW,217,7.0,11.0,89,0.00,,---,0.00,VWS V14.00,2013-01-06 11:56:00,
2013-01-06 06:59:00,32.9,30.0,29.86,SW,219,4.0,15.0,89,0.00,,---,0.00,VWS V14.00,2013-01-06 11:59:00,
2013-01-06 07:00:00,32.9,30.0,29.85,SW,219,4.0,15.0,89,0.00,,---,0.00,VWS V14.00,2013-01-06 12:00:00,
2013-01-06 07:01:00,32.9,30.0,29.85,SW,219,4.0,4.0,89,0.00,,---,0.00,VWS V14.00,2013-01-06 12:01:00,
2013-01-06 07:04:00,33.1,30.2,29.85,SSW,210,9.0,9.0,89,0.00,,---,0.00,VWS V14.00,2013-01-06 12:04:00,
2013-01-06 07:05:00,33.1,30.2,29.85,SSW,213,7.0,9.0,89,0.00,,---,0.00,VWS V14.00,2013-01-06 12:05:00,
2013-01-06 07:06:00,33.1,30.2,29.85,SSW,213,4.0,9.0,89,0.00,,---,0.00,VWS V14.00,2013-01-06 12:06:00,
2013-01-06 07:09:00,33.1,30.2,29.85,SSW,209,9.0,11.0,89,0.00,,---,0.00,VWS V14.00,2013-01-06 12:09:00,
2013-01-06 07:10:00,33.1,30.2,29.85,SSW,203,7.0,11.0,89,0.00,,---,0.00,VWS V14.00,2013-01-06 12:10:00,
2013-01-06 07:11:00,33.1,30.2,29.85,SSW,205,8.0,11.0,89,0.00,,---,0.00,VWS V14.00,2013-01-06 12:11:00,
2013-01-06 07:14:00,33.1,30.2,29.85,SSW,205,4.0,11.0,89,0.00,,---,0.00,VWS V14.00,2013-01-06 12:14:00,
2013-01-06 07:15:00,33.1,30.2,29.85,SSW,206,4.0,11.0,89,0.00,,---,0.00,VWS V14.00,2013-01-06 12:15:00,
2013-01-06 07:16:00,33.1,30.2,29.85,SSW,206,4.0,11.0,89,0.00,,---,0.00,VWS V14.00,2013-01-06 12:16:00,
2013-01-06 07:19:00,33.1,29.9,29.85,SSW,209,7.0,11.0,88,0.00,,---,0.00,VWS V14.00,2013-01-06 12:19:00,
2013-01-06 07:20:00,33.1,29.9,29.85,SW,216,6.0,11.0,88,0.00,,---,0.00,VWS V14.00,2013-01-06 12:20:00,
2013-01-06 07:21:00,33.1,29.9,29.85,SW,215,11.0,11.0,88,0.00,,---,0.00,VWS V14.00,2013-01-06 12:21:00,
2013-01-06 07:22:00,33.1,29.9,29.85,SSW,208,8.0,11.0,88,0.00,,---,0.00,VWS V14.00,2013-01-06 12:22:00,
2013-01-06 07:24:00,33.1,29.9,29.85,SW,219,7.0,13.0,88,0.00,,---,0.00,VWS V14.00,2013-01-06 12:24:00,
2013-01-06 07:25:00,33.1,29.9,29.85,SW,226,9.0,13.0,88,0.00,,---,0.00,VWS V14.00,2013-01-06 12:25:00,
2013-01-06 07:26:00,33.1,29.9,29.85,SSW,209,6.0,13.0,88,0.00,,---,0.00,VWS V14.00,2013-01-06 12:26:00,
2013-01-06 07:27:00,33.1,29.9,29.85,SSW,209,2.0,13.0,88,0.00,,---,0.00,VWS V14.00,2013-01-06 12:27:00,
2013-01-06 07:29:00,33.1,29.9,29.85,SSW,195,8.0,13.0,88,0.00,,---,0.00,VWS V14.00,2013-01-06 12:29:00,
2013-01-06 07:30:00,33.1,29.9,29.85,SSW,210,9.0,13.0,88,0.00,,---,0.00,VWS V14.00,2013-01-06 12:30:00,
2013-01-06 07:31:00,33.1,29.9,29.85,SSW,202,8.0,13.0,88,0.00,,---,0.00,VWS V14.00,2013-01-06 12:31:00,
2013-01-06 07:32:00,33.1,29.9,29.85,SSW,212,6.0,13.0,88,0.00,,---,0.00,VWS V14.00,2013-01-06 12:32:00,
2013-01-06 07:34:00,33.1,29.9,29.85,SSW,206,13.0,13.0,88,0.00,,---,0.00,VWS V14.00,2013-01-06 12:34:00,
2013-01-06 07:35:00,33.1,29.9,29.85,SSW,208,8.0,13.0,88,0.00,,---,0.00,VWS V14.00,2013-01-06 12:35:00,
2013-01-06 07:36:00,33.1,29.9,29.85,SSW,213,9.0,13.0,88,0.00,,---,0.00,VWS V14.00,2013-01-06 12:36:00,
2013-01-06 07:37:00,33.1,29.9,29.85,SSW,212,6.0,13.0,88,0.00,,---,0.00,VWS V14.00,2013-01-06 12:37:00,
2013-01-06 07:40:00,33.1,29.9,29.85,SSW,210,7.0,13.0,88,0.00,,---,0.00,VWS V14.00,2013-01-06 12:40:00,
2013-01-06 07:41:00,33.1,29.9,29.85,SSW,213,9.0,13.0,88,0.00,,---,0.00,VWS V14.00,2013-01-06 12:41:00,
2013-01-06 07:42:00,33.1,29.9,29.85,SW,223,4.0,13.0,88,0.00,,---,0.00,VWS V14.00,2013-01-06 12:42:00,
2013-01-06 07:45:00,33.1,29.9,29.85,SW,230,11.0,13.0,88,0.00,,---,0.00,VWS V14.00,2013-01-06 12:45:00,
2013-01-06 07:46:00,33.1,29.9,29.85,SSW,206,10.0,13.0,88,0.00,,---,0.00,VWS V14.00,2013-01-06 12:46:00,
2013-01-06 07:47:00,33.1,29.9,29.85,SW,220,7.0,13.0,88,0.00,,---,0.00,VWS V14.00,2013-01-06 12:47:00,
2013-01-06 07:50:00,33.1,29.9,29.85,SSW,209,6.0,13.0,88,0.00,,---,0.00,VWS V14.00,2013-01-06 12:50:00,
2013-01-06 07:51:00,33.1,29.9,29.85,SSW,209,4.0,13.0,88,0.00,,---,0.00,VWS V14.00,2013-01-06 12:51:00,
2013-01-06 07:52:00,33.1,29.9,29.85,SW,226,6.0,13.0,88,0.00,,---,0.00,VWS V14.00,2013-01-06 12:52:00,
2013-01-06 07:55:00,33.1,29.9,29.85,SW,222,13.0,16.0,88,0.00,,---,0.00,VWS V14.00,2013-01-06 12:55:00,
2013-01-06 07:56:00,33.1,29.9,29.85,SW,216,6.0,16.0,88,0.00,,---,0.00,VWS V14.00,2013-01-06 12:56:00,
2013-01-06 07:57:00,33.1,29.9,29.85,SSW,196,6.0,16.0,88,0.00,,---,0.00,VWS V14.00,2013-01-06 12:57:00,
2013-01-06 08:00:00,33.1,29.9,29.85,SSW,208,2.0,16.0,88,0.00,,---,0.00,VWS V14.00,2013-01-06 13:00:00,
2013-01-06 08:01:00,33.1,29.9,29.85,WNW,285,4.0,9.0,88,0.00,,---,0.00,VWS V14.00,2013-01-06 13:01:00,
2013-01-06 08:02:00,33.2,30.0,29.85,SSW,200,4.0,9.0,88,0.00,,---,0.00,VWS V14.00,2013-01-06 13:02:00,
2013-01-06 08:05:00,33.2,30.0,29.85,SSW,206,4.0,9.0,88,0.00,,---,0.00,VWS V14.00,2013-01-06 13:05:00,
2013-01-06 08:06:00,33.2,30.0,29.85,SSW,210,6.0,9.0,88,0.00,,---,0.00,VWS V14.00,2013-01-06 13:06:00,
2013-01-06 08:07:00,33.2,30.0,29.85,SSW,210,11.0,13.0,88,0.00,,---,0.00,VWS V14.00,2013-01-06 13:07:00,
2013-01-06 08:10:00,33.2,30.0,29.85,SSW,203,6.0,13.0,88,0.00,,---,0.00,VWS V14.00,2013-01-06 13:10:00,
2013-01-06 08:11:00,33.2,30.0,29.85,SW,222,6.0,13.0,88,0.00,,---,0.00,VWS V14.00,2013-01-06 13:11:00,
2013-01-06 08:12:00,33.2,30.0,29.85,SSW,199,10.0,13.0,88,0.00,,---,0.00,VWS V14.00,2013-01-06 13:12:00,
2013-01-06 08:15:00,33.2,30.0,29.85,WSW,258,8.0,13.0,88,0.00,,---,0.00,VWS V14.00,2013-01-06 13:15:00,
2013-01-06 08:16:00,33.2,29.8,29.85,SW,222,4.0,13.0,87,0.00,,---,0.00,VWS V14.00,2013-01-06 13:16:00,
2013-01-06 08:17:00,33.2,29.8,29.85,SW,229,4.0,13.0,87,0.00,,---,0.00,VWS V14.00,2013-01-06 13:17:00,
2013-01-06 08:20:00,33.2,29.8,29.85,SW,219,8.0,13.0,87,0.00,,---,0.00,VWS V14.00,2013-01-06 13:20:00,
2013-01-06 08:21:00,33.2,29.8,29.85,SW,217,6.0,13.0,87,0.00,,---,0.00,VWS V14.00,2013-01-06 13:21:00,
2013-01-06 08:22:00,33.2,29.8,29.85,SW,217,2.0,13.0,87,0.00,,---,0.00,VWS V14.00,2013-01-06 13:22:00,
2013-01-06 08:23:00,33.2,29.8,29.85,SW,217,6.0,13.0,87,0.00,,---,0.00,VWS V14.00,2013-01-06 13:23:00,
2013-01-06 08:25:00,33.2,29.8,29.85,SSW,198,6.0,13.0,87,0.00,,---,0.00,VWS V14.00,2013-01-06 13:25:00,
2013-01-06 08:26:00,33.2,29.8,29.85,SW,220,4.0,13.0,87,0.00,,---,0.00,VWS V14.00,2013-01-06 13:26:00,
2013-01-06 08:28:00,33.2,29.8,29.85,SW,223,7.0,13.0,87,0.00,,---,0.00,VWS V14.00,2013-01-06 13:28:00,
2013-01-06 08:30:00,33.2,29.8,29.85,WSW,239,4.0,13.0,87,0.00,,---,0.00,VWS V14.00,2013-01-06 13:30:00,
2013-01-06 08:32:00,33.2,29.8,29.85,SSW,208,7.0,13.0,87,0.00,,---,0.00,VWS V14.00,2013-01-06 13:32:00,
2013-01-06 08:33:00,33.2,29.8,29.85,SSW,203,8.0,13.0,87,0.00,,---,0.00,VWS V14.00,2013-01-06 13:33:00,
2013-01-06 08:35:00,33.2,29.8,29.85,SSW,210,7.0,13.0,87,0.00,,---,0.00,VWS V14.00,2013-01-06 13:35:00,
2013-01-06 08:37:00,33.2,29.8,29.85,SW,222,6.0,13.0,87,0.00,,---,0.00,VWS V14.00,2013-01-06 13:37:00,
2013-01-06 08:38:00,33.2,29.8,29.85,SW,222,6.0,13.0,87,0.00,,---,0.00,VWS V14.00,2013-01-06 13:38:00,
2013-01-06 08:40:00,33.2,29.8,29.85,SW,216,8.0,13.0,87,0.00,,---,0.00,VWS V14.00,2013-01-06 13:40:00,
2013-01-06 08:42:00,33.2,29.8,29.85,SW,223,6.0,13.0,87,0.00,,---,0.00,VWS V14.00,2013-01-06 13:42:00,
2013-01-06 08:43:00,33.2,29.8,29.85,SSW,205,7.0,13.0,87,0.00,,---,0.00,VWS V14.00,2013-01-06 13:43:00,
2013-01-06 08:45:00,33.2,29.8,29.85,SW,216,2.0,13.0,87,0.00,,---,0.00,VWS V14.00,2013-01-06 13:45:00,
2013-01-06 08:47:00,33.2,29.8,29.85,SSW,212,10.0,13.0,87,0.00,,---,0.00,VWS V14.00,2013-01-06 13:47:00,
2013-01-06 08:48:00,33.2,29.8,29.85,SSW,212,4.0,13.0,87,0.00,,---,0.00,VWS V14.00,2013-01-06 13:48:00,
2013-01-06 08:49:00,33.2,29.8,29.85,SSW,203,8.0,13.0,87,0.00,,---,0.00,VWS V14.00,2013-01-06 13:49:00,
2013-01-06 08:50:00,33.2,29.8,29.85,SW,216,8.0,13.0,87,0.00,,---,0.00,VWS V14.00,2013-01-06 13:50:00,
2013-01-06 08:52:00,33.2,29.8,29.85,SSW,213,2.0,13.0,87,0.00,,---,0.00,VWS V14.00,2013-01-06 13:52:00,
2013-01-06 08:53:00,33.2,29.8,29.85,SW,215,6.0,13.0,87,0.00,,---,0.00,VWS V14.00,2013-01-06 13:53:00,
2013-01-06 08:54:00,33.2,29.8,29.85,SW,215,4.0,13.0,87,0.00,,---,0.00,VWS V14.00,2013-01-06 13:54:00,
2013-01-06 08:56:00,33.2,29.8,29.85,SSW,210,4.0,13.0,87,0.00,,---,0.00,VWS V14.00,2013-01-06 13:56:00,
2013-01-06 08:57:00,33.2,29.8,29.85,SSW,210,2.0,13.0,87,0.00,,---,0.00,VWS V14.00,2013-01-06 13:57:00,
2013-01-06 08:58:00,33.2,29.8,29.85,SSW,210,2.0,13.0,87,0.00,,---,0.00,VWS V14.00,2013-01-06 13:58:00,
2013-01-06 08:59:00,33.2,29.8,29.85,SSW,213,10.0,13.0,87,0.00,,---,0.00,VWS V14.00,2013-01-06 13:59:00,
2013-01-06 09:01:00,33.2,29.8,29.85,SW,223,4.0,6.0,87,0.00,,---,0.00,VWS V14.00,2013-01-06 14:01:00,
2013-01-06 09:02:00,33.2,29.8,29.85,SSW,212,6.0,6.0,87,0.00,,---,0.00,VWS V14.00,2013-01-06 14:02:00,
2013-01-06 09:03:00,33.2,29.8,29.85,SSW,208,8.0,10.0,87,0.00,,---,0.00,VWS V14.00,2013-01-06 14:03:00,
2013-01-06 09:04:00,33.2,29.8,29.85,SSW,208,6.0,10.0,87,0.00,,---,0.00,VWS V14.00,2013-01-06 14:04:00,
2013-01-06 09:06:00,33.2,29.8,29.85,SSW,210,4.0,10.0,87,0.00,,---,0.00,VWS V14.00,2013-01-06 14:06:00,
2013-01-06 09:07:00,33.2,29.8,29.85,SSW,212,8.0,10.0,87,0.00,,---,0.00,VWS V14.00,2013-01-06 14:07:00,
2013-01-06 09:08:00,33.2,29.8,29.85,SSW,213,2.0,10.0,87,0.00,,---,0.00,VWS V14.00,2013-01-06 14:08:00,
2013-01-06 09:09:00,33.2,29.8,29.85,SSW,213,6.0,10.0,87,0.00,,---,0.00,VWS V14.00,2013-01-06 14:09:00,
2013-01-06 09:11:00,33.2,29.8,29.85,SSW,213,2.0,10.0,87,0.00,,---,0.00,VWS V14.00,2013-01-06 14:11:00,
2013-01-06 09:13:00,33.2,29.8,29.85,South,186,8.0,10.0,87,0.00,,---,0.00,VWS V14.00,2013-01-06 14:13:00,
2013-01-06 09:14:00,33.2,29.8,29.85,SW,220,4.0,11.0,87,0.00,,---,0.00,VWS V14.00,2013-01-06 14:14:00,
2013-01-06 09:16:00,33.4,30.0,29.85,South,186,6.0,11.0,87,0.00,,---,0.00,VWS V14.00,2013-01-06 14:16:00,
2013-01-06 09:18:00,33.4,30.0,29.85,SSW,210,4.0,11.0,87,0.00,,---,0.00,VWS V14.00,2013-01-06 14:18:00,
2013-01-06 09:19:00,33.4,30.0,29.85,SSW,200,0.0,11.0,87,0.00,,---,0.00,VWS V14.00,2013-01-06 14:19:00,
2013-01-06 09:22:00,33.4,30.0,29.85,SSW,202,4.0,11.0,87,0.00,,---,0.00,VWS V14.00,2013-01-06 14:22:00,
2013-01-06 09:23:00,33.4,30.0,29.85,SSW,202,7.0,11.0,87,0.00,,---,0.00,VWS V14.00,2013-01-06 14:23:00,
2013-01-06 09:24:00,33.4,30.0,29.85,SSW,202,4.0,11.0,87,0.00,,---,0.00,VWS V14.00,2013-01-06 14:24:00,
2013-01-06 09:27:00,33.4,30.0,29.85,SSW,212,10.0,11.0,87,0.00,,---,0.00,VWS V14.00,2013-01-06 14:27:00,
2013-01-06 09:28:00,33.4,30.0,29.85,SSW,200,6.0,11.0,87,0.00,,---,0.00,VWS V14.00,2013-01-06 14:28:00,
2013-01-06 09:29:00,33.4,30.0,29.85,SSW,199,7.0,11.0,87,0.00,,---,0.00,VWS V14.00,2013-01-06 14:29:00,
2013-01-06 09:30:00,33.4,30.0,29.86,SSW,213,6.0,11.0,87,0.00,,---,0.00,VWS V14.00,2013-01-06 14:30:00,
2013-01-06 09:32:00,33.4,30.0,29.86,SSW,206,6.0,11.0,87,0.00,,---,0.00,VWS V14.00,2013-01-06 14:32:00,
2013-01-06 09:33:00,33.4,30.0,29.86,SSW,206,6.0,11.0,87,0.00,,---,0.00,VWS V14.00,2013-01-06 14:33:00,
2013-01-06 09:34:00,33.4,30.0,29.86,SSW,206,7.0,11.0,87,0.00,,---,0.00,VWS V14.00,2013-01-06 14:34:00,
2013-01-06 09:35:00,33.5,30.0,29.86,SSW,206,4.0,11.0,87,0.00,,---,0.00,VWS V14.00,2013-01-06 14:35:00,
2013-01-06 09:37:00,33.5,30.0,29.86,SSW,212,13.0,13.0,87,0.00,,---,0.00,VWS V14.00,2013-01-06 14:37:00,
2013-01-06 09:38:00,33.5,30.0,29.86,SSW,206,10.0,13.0,87,0.00,,---,0.00,VWS V14.00,2013-01-06 14:38:00,
2013-01-06 09:39:00,33.5,30.0,29.86,SSW,200,7.0,13.0,87,0.00,,---,0.00,VWS V14.00,2013-01-06 14:39:00,
2013-01-06 09:40:00,33.5,30.0,29.86,SSW,205,8.0,13.0,87,0.00,,---,0.00,VWS V14.00,2013-01-06 14:40:00,
2013-01-06 09:42:00,33.5,30.0,29.86,SW,222,8.0,13.0,87,0.00,,---,0.00,VWS V14.00,2013-01-06 14:42:00,
2013-01-06 09:43:00,33.5,30.0,29.86,SW,222,6.0,13.0,87,0.00,,---,0.00,VWS V14.00,2013-01-06 14:43:00,
2013-01-06 09:44:00,33.5,30.0,29.86,SSW,210,9.0,13.0,87,0.00,,---,0.00,VWS V14.00,2013-01-06 14:44:00,
2013-01-06 09:45:00,33.5,30.0,29.86,SSW,200,4.0,13.0,87,0.00,,---,0.00,VWS V14.00,2013-01-06 14:45:00,
2013-01-06 09:47:00,33.5,29.8,29.86,SW,215,6.0,13.0,86,0.00,,---,0.00,VWS V14.00,2013-01-06 14:47:00,
2013-01-06 09:48:00,33.5,29.8,29.86,SSW,203,8.0,13.0,86,0.00,,---,0.00,VWS V14.00,2013-01-06 14:48:00,
2013-01-06 09:49:00,33.7,30.0,29.86,SSW,205,4.0,13.0,86,0.00,,---,0.00,VWS V14.00,2013-01-06 14:49:00,
2013-01-06 09:50:00,33.7,30.0,29.86,SSW,202,4.0,13.0,86,0.00,,---,0.00,VWS V14.00,2013-01-06 14:50:00,
2013-01-06 09:52:00,33.7,30.0,29.86,SW,219,2.0,13.0,86,0.00,,---,0.00,VWS V14.00,2013-01-06 14:52:00,
2013-01-06 09:53:00,33.7,30.0,29.86,SSW,208,15.0,15.0,86,0.00,,---,0.00,VWS V14.00,2013-01-06 14:53:00,
2013-01-06 09:54:00,33.7,30.0,29.86,SW,215,6.0,15.0,86,0.00,,---,0.00,VWS V14.00,2013-01-06 14:54:00,
2013-01-06 09:55:00,33.7,30.0,29.86,SSW,192,7.0,15.0,86,0.00,,---,0.00,VWS V14.00,2013-01-06 14:55:00,
2013-01-06 09:57:00,33.7,30.0,29.86,SSW,195,9.0,15.0,86,0.00,,---,0.00,VWS V14.00,2013-01-06 14:57:00,
2013-01-06 09:58:00,33.7,30.0,29.86,SSW,200,6.0,15.0,86,0.00,,---,0.00,VWS V14.00,2013-01-06 14:58:00,
2013-01-06 09:59:00,33.8,30.1,29.86,SSW,196,4.0,15.0,86,0.00,,---,0.00,VWS V14.00,2013-01-06 14:59:00,
2013-01-06 10:00:00,33.8,30.1,29.86,SSW,196,2.0,15.0,86,0.00,,---,0.00,VWS V14.00,2013-01-06 15:00:00,
2013-01-06 10:02:00,33.8,30.1,29.86,SSW,196,4.0,8.0,86,0.00,,---,0.00,VWS V14.00,2013-01-06 15:02:00,
2013-01-06 10:03:00,33.8,30.1,29.86,SSW,210,9.0,9.0,86,0.00,,---,0.00,VWS V14.00,2013-01-06 15:03:00,
2013-01-06 10:04:00,33.8,30.1,29.86,SW,219,9.0,11.0,86,0.00,,---,0.00,VWS V14.00,2013-01-06 15:04:00,
2013-01-06 10:05:00,33.8,30.1,29.86,SSW,195,7.0,11.0,86,0.00,,---,0.00,VWS V14.00,2013-01-06 15:05:00,
2013-01-06 10:07:00,33.8,30.1,29.86,SW,224,8.0,14.0,86,0.00,,---,0.00,VWS V14.00,2013-01-06 15:07:00,
2013-01-06 10:09:00,33.8,30.1,29.86,South,189,6.0,14.0,86,0.00,,---,0.00,VWS V14.00,2013-01-06 15:09:00,
2013-01-06 10:10:00,34.0,30.3,29.86,SSW,210,8.0,14.0,86,0.00,,---,0.00,VWS V14.00,2013-01-06 15:10:00,
2013-01-06 10:12:00,34.0,30.3,29.86,SSW,210,7.0,14.0,86,0.00,,---,0.00,VWS V14.00,2013-01-06 15:12:00,
2013-01-06 10:14:00,34.0,30.3,29.86,SSW,210,7.0,14.0,86,0.00,,---,0.00,VWS V14.00,2013-01-06 15:14:00,
2013-01-06 10:15:00,34.0,30.3,29.86,SSW,212,8.0,14.0,86,0.00,,---,0.00,VWS V14.00,2013-01-06 15:15:00,
2013-01-06 10:17:00,34.0,30.3,29.86,SSW,198,1.0,14.0,86,0.00,,---,0.00,VWS V14.00,2013-01-06 15:17:00,
2013-01-06 10:19:00,34.1,30.4,29.86,SW,217,7.0,14.0,86,0.00,,---,0.00,VWS V14.00,2013-01-06 15:19:00,
2013-01-06 10:20:00,34.1,30.4,29.86,WSW,254,4.0,14.0,86,0.00,,---,0.00,VWS V14.00,2013-01-06 15:20:00,
2013-01-06 10:22:00,34.1,30.4,29.86,SSW,209,7.0,14.0,86,0.00,,---,0.00,VWS V14.00,2013-01-06 15:22:00,
2013-01-06 10:24:00,34.1,30.4,29.86,SSW,210,10.0,14.0,86,0.00,,---,0.00,VWS V14.00,2013-01-06 15:24:00,
2013-01-06 10:25:00,34.1,30.1,29.86,SW,219,9.0,14.0,85,0.00,,---,0.00,VWS V14.00,2013-01-06 15:25:00,
2013-01-06 10:27:00,34.1,30.4,29.86,SSW,198,4.0,14.0,86,0.00,,---,0.00,VWS V14.00,2013-01-06 15:27:00,
2013-01-06 10:29:00,34.1,30.1,29.86,SW,215,4.0,14.0,85,0.00,,---,0.00,VWS V14.00,2013-01-06 15:29:00,
2013-01-06 10:30:00,34.1,30.1,29.86,SSW,208,10.0,14.0,85,0.00,,---,0.00,VWS V14.00,2013-01-06 15:30:00,
2013-01-06 10:33:00,34.3,30.3,29.86,SSW,212,8.0,14.0,85,0.00,,---,0.00,VWS V14.00,2013-01-06 15:33:00,
2013-01-06 10:34:00,34.3,30.3,29.86,SW,215,8.0,14.0,85,0.00,,---,0.00,VWS V14.00,2013-01-06 15:34:00,
2013-01-06 10:35:00,34.3,30.3,29.86,West,260,4.0,14.0,85,0.00,,---,0.00,VWS V14.00,2013-01-06 15:35:00,
2013-01-06 10:38:00,34.3,30.3,29.86,SSW,199,9.0,14.0,85,0.00,,---,0.00,VWS V14.00,2013-01-06 15:38:00,
2013-01-06 10:39:00,34.3,30.3,29.86,SSW,200,4.0,14.0,85,0.00,,---,0.00,VWS V14.00,2013-01-06 15:39:00,
2013-01-06 10:40:00,34.3,30.3,29.86,SW,216,6.0,14.0,85,0.00,,---,0.00,VWS V14.00,2013-01-06 15:40:00,
2013-01-06 10:41:00,34.3,30.3,29.86,SSW,209,10.0,14.0,85,0.00,,---,0.00,VWS V14.00,2013-01-06 15:41:00,
2013-01-06 10:43:00,34.3,30.3,29.86,SW,222,7.0,14.0,85,0.00,,---,0.00,VWS V14.00,2013-01-06 15:43:00,
2013-01-06 10:44:00,34.3,30.3,29.86,South,188,7.0,14.0,85,0.00,,---,0.00,VWS V14.00,2013-01-06 15:44:00,
2013-01-06 10:45:00,34.4,30.4,29.86,West,275,0.0,14.0,85,0.00,,---,0.00,VWS V14.00,2013-01-06 15:45:00,
2013-01-06 10:46:00,34.4,30.4,29.86,SSW,203,6.0,14.0,85,0.00,,---,0.00,VWS V14.00,2013-01-06 15:46:00,
2013-01-06 10:48:00,34.4,30.4,29.86,SW,223,7.0,14.0,85,0.00,,---,0.00,VWS V14.00,2013-01-06 15:48:00,
2013-01-06 10:49:00,34.4,30.4,29.86,SW,224,7.0,14.0,85,0.00,,---,0.00,VWS V14.00,2013-01-06 15:49:00,
2013-01-06 10:51:00,34.4,30.4,29.86,SW,219,8.0,14.0,85,0.00,,---,0.00,VWS V14.00,2013-01-06 15:51:00,
2013-01-06 10:53:00,34.4,30.4,29.86,SW,217,6.0,14.0,85,0.01,,---,0.01,VWS V14.00,2013-01-06 15:53:00,
2013-01-06 10:54:00,34.4,30.4,29.86,SW,222,7.0,14.0,85,0.01,,---,0.01,VWS V14.00,2013-01-06 15:54:00,
2013-01-06 10:56:00,34.4,30.4,29.86,SSW,210,8.0,14.0,85,0.01,,---,0.01,VWS V14.00,2013-01-06 15:56:00,
2013-01-06 10:58:00,34.4,30.4,29.86,SSW,210,2.0,14.0,85,0.01,,---,0.01,VWS V14.00,2013-01-06 15:58:00,
2013-01-06 11:00:00,34.6,30.6,29.86,SSW,208,8.0,14.0,85,0.01,,---,0.01,VWS V14.00,2013-01-06 16:00:00,
2013-01-06 11:01:00,34.6,30.6,29.86,SSW,210,7.0,10.0,85,0.01,,---,0.01,VWS V14.00,2013-01-06 16:01:00,
2013-01-06 11:04:00,34.6,30.6,29.86,SW,216,4.0,11.0,85,0.01,,---,0.01,VWS V14.00,2013-01-06 16:04:00,
2013-01-06 11:05:00,34.6,30.6,29.86,SW,219,6.0,11.0,85,0.01,,---,0.01,VWS V14.00,2013-01-06 16:05:00,
2013-01-06 11:06:00,34.6,30.6,29.86,SSW,209,0.0,11.0,85,0.01,,---,0.01,VWS V14.00,2013-01-06 16:06:00,
2013-01-06 11:09:00,34.6,30.6,29.86,SSW,205,4.0,11.0,85,0.01,,---,0.01,VWS V14.00,2013-01-06 16:09:00,
2013-01-06 11:10:00,34.6,30.6,29.86,SSW,206,8.0,11.0,85,0.01,,---,0.01,VWS V14.00,2013-01-06 16:10:00,
2013-01-06 11:11:00,34.6,30.6,29.86,SSW,212,8.0,11.0,85,0.01,,---,0.01,VWS V14.00,2013-01-06 16:11:00,
2013-01-06 11:14:00,34.7,30.4,29.86,SSW,205,7.0,17.0,84,0.01,,---,0.01,VWS V14.00,2013-01-06 16:14:00,
2013-01-06 11:15:00,34.7,30.4,29.86,SSW,200,7.0,17.0,84,0.01,,---,0.01,VWS V14.00,2013-01-06 16:15:00,
2013-01-06 11:16:00,34.7,30.4,29.86,SSW,213,14.0,17.0,84,0.01,,---,0.01,VWS V14.00,2013-01-06 16:16:00,
2013-01-06 11:19:00,34.7,30.4,29.86,SSW,213,4.0,17.0,84,0.01,,---,0.01,VWS V14.00,2013-01-06 16:19:00,
2013-01-06 11:20:00,34.7,30.4,29.86,SSW,193,7.0,17.0,84,0.01,,---,0.01,VWS V14.00,2013-01-06 16:20:00,
2013-01-06 11:21:00,34.7,30.4,29.86,SSW,208,10.0,17.0,84,0.01,,---,0.01,VWS V14.00,2013-01-06 16:21:00,
2013-01-06 11:22:00,34.7,30.4,29.86,SW,216,7.0,17.0,84,0.01,,---,0.01,VWS V14.00,2013-01-06 16:22:00,
2013-01-06 11:24:00,34.7,30.4,29.86,SSW,200,8.0,17.0,84,0.01,,---,0.01,VWS V14.00,2013-01-06 16:24:00,
2013-01-06 11:25:00,34.7,30.4,29.86,SSW,200,8.0,17.0,84,0.01,,---,0.01,VWS V14.00,2013-01-06 16:25:00,
2013-01-06 11:26:00,34.7,30.4,29.86,SSW,200,2.0,17.0,84,0.01,,---,0.01,VWS V14.00,2013-01-06 16:26:00,
2013-01-06 11:27:00,34.7,30.4,29.86,SSW,198,2.0,17.0,84,0.01,,---,0.01,VWS V14.00,2013-01-06 16:27:00,
2013-01-06 11:29:00,34.7,30.4,29.86,SW,226,6.0,17.0,84,0.01,,---,0.01,VWS V14.00,2013-01-06 16:29:00,
2013-01-06 11:30:00,34.7,30.4,29.86,SW,232,6.0,17.0,84,0.01,,---,0.01,VWS V14.00,2013-01-06 16:30:00,
2013-01-06 11:31:00,34.9,30.6,29.86,SSW,209,10.0,17.0,84,0.01,,---,0.01,VWS V14.00,2013-01-06 16:31:00,
2013-01-06 11:32:00,34.9,30.6,29.86,SW,217,6.0,17.0,84,0.01,,---,0.01,VWS V14.00,2013-01-06 16:32:00,
2013-01-06 11:34:00,34.9,30.6,29.86,SW,236,6.0,17.0,84,0.01,,---,0.01,VWS V14.00,2013-01-06 16:34:00,
2013-01-06 11:35:00,34.9,30.6,29.86,SSW,208,8.0,17.0,84,0.01,,---,0.01,VWS V14.00,2013-01-06 16:35:00,
2013-01-06 11:36:00,34.9,30.6,29.86,SW,216,2.0,17.0,84,0.01,,---,0.01,VWS V14.00,2013-01-06 16:36:00,
2013-01-06 11:37:00,34.9,30.6,29.86,SSW,208,13.0,17.0,84,0.01,,---,0.01,VWS V14.00,2013-01-06 16:37:00,
2013-01-06 11:39:00,34.9,30.6,29.86,SW,222,6.0,17.0,84,0.01,,---,0.01,VWS V14.00,2013-01-06 16:39:00,
2013-01-06 11:40:00,34.9,30.6,29.86,South,189,8.0,17.0,84,0.01,,---,0.01,VWS V14.00,2013-01-06 16:40:00,
2013-01-06 11:41:00,34.9,30.6,29.86,SW,223,6.0,17.0,84,0.01,,---,0.01,VWS V14.00,2013-01-06 16:41:00,
2013-01-06 11:42:00,34.9,30.6,29.86,SSW,203,10.0,17.0,84,0.01,,---,0.01,VWS V14.00,2013-01-06 16:42:00,
2013-01-06 11:44:00,34.9,30.6,29.86,SSW,200,2.0,17.0,84,0.01,,---,0.01,VWS V14.00,2013-01-06 16:44:00,
2013-01-06 11:45:00,34.9,30.6,29.86,SW,226,10.0,17.0,84,0.01,,---,0.01,VWS V14.00,2013-01-06 16:45:00,
2013-01-06 11:46:00,34.9,30.6,29.86,SW,229,6.0,17.0,84,0.01,,---,0.01,VWS V14.00,2013-01-06 16:46:00,
2013-01-06 11:47:00,34.9,30.6,29.86,WSW,240,6.0,17.0,84,0.01,,---,0.01,VWS V14.00,2013-01-06 16:47:00,
2013-01-06 11:49:00,34.9,30.6,29.86,SW,233,7.0,17.0,84,0.01,,---,0.01,VWS V14.00,2013-01-06 16:49:00,
2013-01-06 11:50:00,34.9,30.6,29.86,SSW,213,8.0,17.0,84,0.01,,---,0.01,VWS V14.00,2013-01-06 16:50:00,
2013-01-06 11:52:00,34.9,30.9,29.86,SW,226,13.0,17.0,85,0.01,,---,0.01,VWS V14.00,2013-01-06 16:52:00,
2013-01-06 11:54:00,34.9,30.9,29.86,SSW,208,8.0,17.0,85,0.01,,---,0.01,VWS V14.00,2013-01-06 16:54:00,
2013-01-06 11:55:00,34.9,30.9,29.86,SW,219,13.0,17.0,85,0.01,,---,0.01,VWS V14.00,2013-01-06 16:55:00,
2013-01-06 11:57:00,34.7,30.7,29.86,SSW,212,8.0,17.0,85,0.01,,---,0.01,VWS V14.00,2013-01-06 16:57:00,
2013-01-06 11:59:00,34.7,30.7,29.86,SSW,196,8.0,17.0,85,0.01,,---,0.01,VWS V14.00,2013-01-06 16:59:00,
2013-01-06 12:00:00,34.7,30.7,29.85,SW,220,13.0,17.0,85,0.01,,---,0.01,VWS V14.00,2013-01-06 17:00:00,
2013-01-06 12:01:00,34.7,30.7,29.85,SSW,209,8.0,14.0,85,0.00,,---,0.01,VWS V14.00,2013-01-06 17:01:00,
2013-01-06 12:02:00,34.7,30.7,29.85,SSW,209,7.0,14.0,85,0.00,,---,0.01,VWS V14.00,2013-01-06 17:02:00,
2013-01-06 12:04:00,34.7,30.7,29.85,SW,224,7.0,14.0,85,0.00,,---,0.01,VWS V14.00,2013-01-06 17:04:00,
2013-01-06 12:05:00,34.7,30.7,29.85,SSW,196,2.0,15.0,85,0.00,,---,0.01,VWS V14.00,2013-01-06 17:05:00,
2013-01-06 12:07:00,34.7,30.7,29.85,WSW,240,9.0,15.0,85,0.00,,---,0.01,VWS V14.00,2013-01-06 17:07:00,
2013-01-06 12:09:00,34.7,31.0,29.85,SSW,213,11.0,15.0,86,0.00,,---,0.01,VWS V14.00,2013-01-06 17:09:00,
2013-01-06 12:10:00,34.7,31.0,29.85,SSW,202,7.0,15.0,86,0.00,,---,0.01,VWS V14.00,2013-01-06 17:10:00,
2013-01-06 12:12:00,34.6,30.9,29.85,SW,219,4.0,15.0,86,0.00,,---,0.01,VWS V14.00,2013-01-06 17:12:00,
2013-01-06 12:14:00,34.6,30.9,29.85,SW,216,6.0,15.0,86,0.00,,---,0.01,VWS V14.00,2013-01-06 17:14:00,
2013-01-06 12:15:00,34.6,30.9,29.85,SSW,213,6.0,15.0,86,0.00,,---,0.01,VWS V14.00,2013-01-06 17:15:00,
2013-01-06 12:17:00,34.6,30.9,29.85,SSW,205,7.0,15.0,86,0.00,,---,0.01,VWS V14.00,2013-01-06 17:17:00,
2013-01-06 12:19:00,34.6,31.1,29.85,SW,233,7.0,15.0,87,0.00,,---,0.01,VWS V14.00,2013-01-06 17:19:00,
2013-01-06 12:20:00,34.6,31.1,29.85,SW,219,6.0,15.0,87,0.00,,---,0.01,VWS V14.00,2013-01-06 17:20:00,
2013-01-06 12:22:00,34.4,30.9,29.85,SSW,209,6.0,15.0,87,0.00,,---,0.01,VWS V14.00,2013-01-06 17:22:00,
2013-01-06 12:24:00,34.4,30.9,29.85,SW,222,10.0,15.0,87,0.00,,---,0.01,VWS V14.00,2013-01-06 17:24:00,
2013-01-06 12:26:00,34.4,30.9,29.85,SW,215,10.0,15.0,87,0.00,,---,0.01,VWS V14.00,2013-01-06 17:26:00,
2013-01-06 12:27:00,34.4,31.2,29.85,WNW,288,6.0,15.0,88,0.00,,---,0.01,VWS V14.00,2013-01-06 17:27:00,
2013-01-06 12:29:00,34.3,31.1,29.85,SW,215,4.0,15.0,88,0.00,,---,0.01,VWS V14.00,2013-01-06 17:29:00,
2013-01-06 12:31:00,34.3,31.1,29.85,WNW,288,2.0,15.0,88,0.00,,---,0.01,VWS V14.00,2013-01-06 17:31:00,
2013-01-06 12:32:00,34.3,31.1,29.85,SW,219,8.0,15.0,88,0.00,,---,0.01,VWS V14.00,2013-01-06 17:32:00,
2013-01-06 12:34:00,34.3,31.1,29.85,SSW,205,7.0,15.0,88,0.00,,---,0.01,VWS V14.00,2013-01-06 17:34:00,
2013-01-06 12:36:00,34.3,31.1,29.85,SW,222,8.0,15.0,88,0.00,,---,0.01,VWS V14.00,2013-01-06 17:36:00,
2013-01-06 12:37:00,34.3,31.1,29.85,SW,223,2.0,15.0,88,0.00,,---,0.01,VWS V14.00,2013-01-06 17:37:00,
2013-01-06 12:40:00,34.3,31.4,29.85,SW,226,8.0,15.0,89,0.00,,---,0.01,VWS V14.00,2013-01-06 17:40:00,
2013-01-06 12:41:00,34.3,31.4,29.85,SW,216,6.0,15.0,89,0.00,,---,0.01,VWS V14.00,2013-01-06 17:41:00,
2013-01-06 12:42:00,34.3,31.4,29.85,SW,216,8.0,15.0,89,0.00,,---,0.01,VWS V14.00,2013-01-06 17:42:00,
2013-01-06 12:43:00,34.3,31.4,29.85,SW,216,6.0,15.0,89,0.00,,---,0.01,VWS V14.00,2013-01-06 17:43:00,
2013-01-06 12:45:00,34.3,31.4,29.85,SW,215,9.0,15.0,89,0.00,,---,0.01,VWS V14.00,2013-01-06 17:45:00,
2013-01-06 12:46:00,34.3,31.4,29.85,WSW,246,7.0,15.0,89,0.00,,---,0.01,VWS V14.00,2013-01-06 17:46:00,
2013-01-06 12:47:00,34.3,31.4,29.85,SW,232,2.0,15.0,89,0.00,,---,0.01,VWS V14.00,2013-01-06 17:47:00,
2013-01-06 12:48:00,34.3,31.4,29.85,SSW,209,10.0,15.0,89,0.00,,---,0.01,VWS V14.00,2013-01-06 17:48:00,
2013-01-06 12:50:00,34.3,31.4,29.85,SW,232,8.0,15.0,89,0.00,,---,0.01,VWS V14.00,2013-01-06 17:50:00,
2013-01-06 12:51:00,34.4,31.5,29.85,SW,216,7.0,15.0,89,0.00,,---,0.01,VWS V14.00,2013-01-06 17:51:00,
2013-01-06 12:52:00,34.4,31.5,29.85,SW,216,2.0,15.0,89,0.00,,---,0.01,VWS V14.00,2013-01-06 17:52:00,
2013-01-06 12:53:00,34.4,31.5,29.85,SSW,210,7.0,15.0,89,0.00,,---,0.01,VWS V14.00,2013-01-06 17:53:00,
2013-01-06 12:55:00,34.4,31.5,29.85,West,265,2.0,15.0,89,0.00,,---,0.01,VWS V14.00,2013-01-06 17:55:00,
2013-01-06 12:56:00,34.4,31.5,29.85,WNW,287,2.0,15.0,89,0.00,,---,0.01,VWS V14.00,2013-01-06 17:56:00,
2013-01-06 12:57:00,34.4,31.5,29.85,SW,220,8.0,15.0,89,0.00,,---,0.01,VWS V14.00,2013-01-06 17:57:00,
2013-01-06 12:58:00,34.4,31.5,29.85,SW,224,11.0,15.0,89,0.00,,---,0.01,VWS V14.00,2013-01-06 17:58:00,
2013-01-06 13:00:00,34.4,31.5,29.85,West,272,16.0,17.0,89,0.00,,---,0.01,VWS V14.00,2013-01-06 18:00:00,
2013-01-06 13:01:00,34.4,31.5,29.85,SSW,206,8.0,13.0,89,0.00,,---,0.01,VWS V14.00,2013-01-06 18:01:00,
2013-01-06 13:02:00,34.4,31.5,29.85,SW,236,9.0,13.0,89,0.00,,---,0.01,VWS V14.00,2013-01-06 18:02:00,
2013-01-06 13:03:00,34.4,31.5,29.85,SW,234,7.0,13.0,89,0.00,,---,0.01,VWS V14.00,2013-01-06 18:03:00,
2013-01-06 13:05:00,34.4,31.5,29.85,WNW,296,10.0,13.0,89,0.00,,---,0.01,VWS V14.00,2013-01-06 18:05:00,
2013-01-06 13:06:00,34.4,31.5,29.85,WSW,243,7.0,16.0,89,0.00,,---,0.01,VWS V14.00,2013-01-06 18:06:00,
2013-01-06 13:07:00,34.4,31.5,29.85,WSW,237,9.0,16.0,89,0.00,,---,0.01,VWS V14.00,2013-01-06 18:07:00,
2013-01-06 13:08:00,34.4,31.5,29.85,SSW,212,7.0,16.0,89,0.00,,---,0.01,VWS V14.00,2013-01-06 18:08:00,
2013-01-06 13:10:00,34.6,31.7,29.85,SW,222,10.0,16.0,89,0.00,,---,0.01,VWS V14.00,2013-01-06 18:10:00,
2013-01-06 13:12:00,34.6,31.7,29.85,West,280,6.0,16.0,89,0.00,,---,0.01,VWS V14.00,2013-01-06 18:12:00,
2013-01-06 13:13:00,34.6,31.7,29.85,NW,306,8.0,16.0,89,0.00,,---,0.01,VWS V14.00,2013-01-06 18:13:00,
2013-01-06 13:15:00,34.6,31.4,29.85,SW,223,11.0,17.0,88,0.00,,---,0.01,VWS V14.00,2013-01-06 18:15:00,
2013-01-06 13:17:00,34.6,31.4,29.85,SW,236,9.0,17.0,88,0.00,,---,0.01,VWS V14.00,2013-01-06 18:17:00,
2013-01-06 13:18:00,34.6,31.4,29.85,South,191,11.0,17.0,88,0.00,,---,0.01,VWS V14.00,2013-01-06 18:18:00,
2013-01-06 13:20:00,34.6,31.1,29.85,WSW,253,16.0,21.0,87,0.00,,---,0.01,VWS V14.00,2013-01-06 18:20:00,
2013-01-06 13:22:00,34.6,31.1,29.85,WSW,244,8.0,21.0,87,0.00,,---,0.01,VWS V14.00,2013-01-06 18:22:00,
2013-01-06 13:23:00,34.6,31.1,29.85,West,275,16.0,22.0,87,0.00,,---,0.01,VWS V14.00,2013-01-06 18:23:00,
2013-01-06 13:25:00,34.6,30.9,29.85,WNW,284,16.0,22.0,86,0.00,,---,0.01,VWS V14.00,2013-01-06 18:25:00,
2013-01-06 13:27:00,34.6,30.9,29.85,West,274,13.0,22.0,86,0.00,,---,0.01,VWS V14.00,2013-01-06 18:27:00,
2013-01-06 13:28:00,34.6,30.9,29.85,WSW,258,18.0,22.0,86,0.00,,---,0.01,VWS V14.00,2013-01-06 18:28:00,
2013-01-06 13:30:00,34.6,30.6,29.86,SW,226,10.0,22.0,85,0.00,,---,0.01,VWS V14.00,2013-01-06 18:30:00,
2013-01-06 13:32:00,34.6,30.6,29.86,SW,216,13.0,24.0,85,0.00,,---,0.01,VWS V14.00,2013-01-06 18:32:00,
2013-01-06 13:33:00,34.6,30.6,29.86,WNW,288,15.0,24.0,85,0.00,,---,0.01,VWS V14.00,2013-01-06 18:33:00,
2013-01-06 13:34:00,34.6,30.6,29.86,WNW,288,15.0,24.0,85,0.00,,---,0.01,VWS V14.00,2013-01-06 18:34:00,
2013-01-06 13:36:00,34.6,30.6,29.86,West,272,15.0,24.0,85,0.00,,---,0.01,VWS V14.00,2013-01-06 18:36:00,
2013-01-06 13:38:00,34.6,30.3,29.86,SW,216,13.0,24.0,84,0.00,,---,0.01,VWS V14.00,2013-01-06 18:38:00,
2013-01-06 13:39:00,34.6,30.3,29.86,NW,305,8.0,24.0,84,0.00,,---,0.01,VWS V14.00,2013-01-06 18:39:00,
2013-01-06 13:41:00,34.6,30.3,29.86,West,261,16.0,24.0,84,0.00,,---,0.01,VWS V14.00,2013-01-06 18:41:00,
2013-01-06 13:43:00,34.6,30.6,29.86,WNW,301,10.0,24.0,85,0.00,,---,0.01,VWS V14.00,2013-01-06 18:43:00,
2013-01-06 13:44:00,34.4,30.4,29.86,West,267,8.0,24.0,85,0.00,,---,0.01,VWS V14.00,2013-01-06 18:44:00,
2013-01-06 13:46:00,34.4,30.4,29.86,WNW,288,9.0,24.0,85,0.00,,---,0.01,VWS V14.00,2013-01-06 18:46:00,
2013-01-06 13:48:00,34.4,30.4,29.86,NW,309,7.0,24.0,85,0.00,,---,0.01,VWS V14.00,2013-01-06 18:48:00,
2013-01-06 13:49:00,34.3,30.3,29.86,SW,223,8.0,24.0,85,0.00,,---,0.01,VWS V14.00,2013-01-06 18:49:00,
2013-01-06 13:51:00,34.3,30.6,29.86,SW,223,10.0,24.0,86,0.00,,---,0.01,VWS V14.00,2013-01-06 18:51:00,
2013-01-06 13:53:00,34.1,30.4,29.86,WNW,295,8.0,24.0,86,0.00,,---,0.01,VWS V14.00,2013-01-06 18:53:00,
2013-01-06 13:54:00,34.1,30.4,29.86,NW,312,9.0,24.0,86,0.00,,---,0.01,VWS V14.00,2013-01-06 18:54:00,
2013-01-06 13:56:00,34.0,30.3,29.86,SW,229,8.0,24.0,86,0.00,,---,0.01,VWS V14.00,2013-01-06 18:56:00,
2013-01-06 13:58:00,34.0,30.3,29.86,WSW,241,11.0,24.0,86,0.00,,---,0.01,VWS V14.00,2013-01-06 18:58:00,
2013-01-06 13:59:00,34.0,30.3,29.86,West,277,8.0,24.0,86,0.00,,---,0.01,VWS V14.00,2013-01-06 18:59:00,
2013-01-06 14:01:00,33.8,30.4,29.86,WSW,241,10.0,11.0,87,0.00,,---,0.01,VWS V14.00,2013-01-06 19:01:00,
2013-01-06 14:03:00,33.8,30.4,29.86,SSW,203,9.0,15.0,87,0.00,,---,0.01,VWS V14.00,2013-01-06 19:03:00,
2013-01-06 14:04:00,33.8,30.4,29.86,West,265,8.0,15.0,87,0.00,,---,0.01,VWS V14.00,2013-01-06 19:04:00,
2013-01-06 14:06:00,33.7,30.2,29.86,SW,232,8.0,15.0,87,0.00,,---,0.01,VWS V14.00,2013-01-06 19:06:00,
2013-01-06 14:08:00,33.7,30.2,29.86,SW,229,10.0,15.0,87,0.00,,---,0.01,VWS V14.00,2013-01-06 19:08:00,
2013-01-06 14:09:00,33.7,30.2,29.86,SW,232,10.0,15.0,87,0.00,,---,0.01,VWS V14.00,2013-01-06 19:09:00,
2013-01-06 14:11:00,33.7,30.2,29.86,SW,219,10.0,15.0,87,0.00,,---,0.01,VWS V14.00,2013-01-06 19:11:00,
2013-01-06 14:13:00,33.7,30.5,29.86,WNW,282,9.0,15.0,88,0.00,,---,0.01,VWS V14.00,2013-01-06 19:13:00,
2013-01-06 14:14:00,33.7,30.5,29.86,WNW,291,4.0,15.0,88,0.00,,---,0.01,VWS V14.00,2013-01-06 19:14:00,
2013-01-06 14:16:00,33.5,30.3,29.87,WNW,292,8.0,15.0,88,0.00,,---,0.01,VWS V14.00,2013-01-06 19:16:00,
2013-01-06 14:18:00,33.5,30.3,29.87,SW,223,9.0,15.0,88,0.00,,---,0.01,VWS V14.00,2013-01-06 19:18:00,
2013-01-06 14:19:00,33.5,30.3,29.87,SW,222,4.0,15.0,88,0.00,,---,0.01,VWS V14.00,2013-01-06 19:19:00,
2013-01-06 14:22:00,33.5,30.3,29.87,SW,234,9.0,15.0,88,0.00,,---,0.01,VWS V14.00,2013-01-06 19:22:00,
2013-01-06 14:23:00,33.5,30.3,29.87,SW,234,2.0,15.0,88,0.00,,---,0.01,VWS V14.00,2013-01-06 19:23:00,
2013-01-06 14:24:00,33.5,30.3,29.87,WNW,298,9.0,15.0,88,0.00,,---,0.01,VWS V14.00,2013-01-06 19:24:00,
2013-01-06 14:27:00,33.5,30.3,29.87,WNW,285,9.0,15.0,88,0.00,,---,0.01,VWS V14.00,2013-01-06 19:27:00,
2013-01-06 14:29:00,33.5,30.3,29.87,SW,220,13.0,15.0,88,0.00,,---,0.01,VWS V14.00,2013-01-06 19:29:00,
2013-01-06 14:30:00,33.5,30.3,29.87,SSW,205,14.0,16.0,88,0.00,,---,0.01,VWS V14.00,2013-01-06 19:30:00,
2013-01-06 14:32:00,33.4,30.2,29.87,NW,309,11.0,16.0,88,0.00,,---,0.01,VWS V14.00,2013-01-06 19:32:00,
2013-01-06 14:34:00,33.4,30.2,29.87,SW,232,11.0,16.0,88,0.00,,---,0.01,VWS V14.00,2013-01-06 19:34:00,
2013-01-06 14:35:00,33.4,30.2,29.87,WSW,251,11.0,17.0,88,0.00,,---,0.01,VWS V14.00,2013-01-06 19:35:00,
2013-01-06 14:37:00,33.4,30.2,29.87,SW,227,16.0,17.0,88,0.00,,---,0.01,VWS V14.00,2013-01-06 19:37:00,
2013-01-06 14:39:00,33.4,30.2,29.87,WSW,243,7.0,17.0,88,0.00,,---,0.01,VWS V14.00,2013-01-06 19:39:00,
2013-01-06 14:40:00,33.4,30.2,29.87,SW,234,8.0,17.0,88,0.00,,---,0.01,VWS V14.00,2013-01-06 19:40:00,
2013-01-06 14:45:00,33.2,30.0,29.88,WSW,258,7.0,17.0,88,0.00,,---,0.01,VWS V14.00,2013-01-06 19:45:00,
2013-01-06 14:50:00,33.2,30.0,29.88,WNW,287,9.0,17.0,88,0.00,,---,0.01,VWS V14.00,2013-01-06 19:50:00,
2013-01-06 14:51:00,33.2,30.0,29.88,SW,216,10.0,17.0,88,0.00,,---,0.01,VWS V14.00,2013-01-06 19:51:00,
2013-01-06 14:55:00,33.1,29.9,29.88,SSW,199,13.0,17.0,88,0.00,,---,0.01,VWS V14.00,2013-01-06 19:55:00,
2013-01-06 14:56:00,33.1,29.9,29.88,SW,223,9.0,17.0,88,0.00,,---,0.01,VWS V14.00,2013-01-06 19:56:00,
2013-01-06 15:01:00,32.9,30.0,29.89,SW,217,6.0,7.0,89,0.00,,---,0.01,VWS V14.00,2013-01-06 20:01:00,
2013-01-06 15:06:00,32.9,30.0,29.89,SW,223,10.0,13.0,89,0.00,,---,0.01,VWS V14.00,2013-01-06 20:06:00,
2013-01-06 15:07:00,32.9,30.0,29.89,WSW,240,6.0,13.0,89,0.00,,---,0.01,VWS V14.00,2013-01-06 20:07:00,
2013-01-06 15:11:00,32.8,29.9,29.89,WNW,287,8.0,13.0,89,0.00,,---,0.01,VWS V14.00,2013-01-06 20:11:00,
2013-01-06 15:13:00,32.8,29.9,29.89,WSW,239,6.0,13.0,89,0.00,,---,0.01,VWS V14.00,2013-01-06 20:13:00,
2013-01-06 15:16:00,32.8,29.9,29.90,WSW,247,6.0,14.0,89,0.00,,---,0.01,VWS V14.00,2013-01-06 20:16:00,
2013-01-06 15:18:00,32.8,29.9,29.90,WSW,247,9.0,14.0,89,0.00,,---,0.01,VWS V14.00,2013-01-06 20:18:00,
2013-01-06 15:21:00,32.7,29.8,29.90,SW,236,8.0,14.0,89,0.00,,---,0.01,VWS V14.00,2013-01-06 20:21:00,
2013-01-06 15:23:00,32.7,29.8,29.90,SW,229,17.0,17.0,89,0.00,,---,0.01,VWS V14.00,2013-01-06 20:23:00,
2013-01-06 15:26:00,32.5,29.6,29.90,WNW,285,8.0,17.0,89,0.00,,---,0.01,VWS V14.00,2013-01-06 20:26:00,
2013-01-06 15:28:00,32.5,29.6,29.90,West,267,14.0,17.0,89,0.00,,---,0.01,VWS V14.00,2013-01-06 20:28:00,
2013-01-06 15:31:00,32.5,29.9,29.91,SW,234,11.0,20.0,90,0.00,,---,0.01,VWS V14.00,2013-01-06 20:31:00,
2013-01-06 15:33:00,32.5,29.9,29.91,West,278,10.0,20.0,90,0.00,,---,0.01,VWS V14.00,2013-01-06 20:33:00,
2013-01-06 15:36:00,32.5,29.9,29.91,SW,224,10.0,20.0,90,0.00,,---,0.01,VWS V14.00,2013-01-06 20:36:00,
2013-01-06 15:38:00,32.5,29.9,29.91,WNW,288,9.0,20.0,90,0.00,,---,0.01,VWS V14.00,2013-01-06 20:38:00,
2013-01-06 15:39:00,32.4,29.8,29.91,WNW,289,6.0,20.0,90,0.00,,---,0.01,VWS V14.00,2013-01-06 20:39:00,
2013-01-06 15:41:00,32.4,29.8,29.91,WSW,241,10.0,20.0,90,0.00,,---,0.01,VWS V14.00,2013-01-06 20:41:00,
2013-01-06 15:44:00,32.4,29.8,29.91,West,267,13.0,20.0,90,0.00,,---,0.01,VWS V14.00,2013-01-06 20:44:00,
2013-01-06 15:47:00,32.4,29.8,29.93,West,277,8.0,20.0,90,0.00,,---,0.01,VWS V14.00,2013-01-06 20:47:00,
2013-01-06 15:49:00,32.4,29.8,29.93,WNW,294,8.0,20.0,90,0.00,,---,0.01,VWS V14.00,2013-01-06 20:49:00,
2013-01-06 15:52:00,32.2,29.6,29.93,NW,309,6.0,20.0,90,0.00,,---,0.01,VWS V14.00,2013-01-06 20:52:00,
2013-01-06 15:54:00,32.2,29.6,29.93,WNW,282,10.0,20.0,90,0.00,,---,0.01,VWS V14.00,2013-01-06 20:54:00,
2013-01-06 15:57:00,32.2,29.6,29.93,West,277,13.0,20.0,90,0.00,,---,0.01,VWS V14.00,2013-01-06 20:57:00,
2013-01-06 15:59:00,32.2,29.6,29.93,WNW,291,11.0,20.0,90,0.00,,---,0.01,VWS V14.00,2013-01-06 20:59:00,
2013-01-06 16:01:00,32.1,29.5,29.94,WNW,292,7.0,11.0,90,0.00,,---,0.01,VWS V14.00,2013-01-06 21:01:00,
2013-01-06 16:02:00,32.1,29.5,29.94,West,281,10.0,11.0,90,0.00,,---,0.01,VWS V14.00,2013-01-06 21:02:00,
2013-01-06 16:04:00,32.1,29.5,29.94,SW,223,7.0,11.0,90,0.00,,---,0.01,VWS V14.00,2013-01-06 21:04:00,
2013-01-06 16:06:00,32.1,29.5,29.94,West,271,8.0,13.0,90,0.00,,---,0.01,VWS V14.00,2013-01-06 21:06:00,
2013-01-06 16:07:00,32.1,29.5,29.94,NW,306,8.0,13.0,90,0.00,,---,0.01,VWS V14.00,2013-01-06 21:07:00,
2013-01-06 16:09:00,32.1,29.5,29.94,West,281,9.0,13.0,90,0.00,,---,0.01,VWS V14.00,2013-01-06 21:09:00,
2013-01-06 16:11:00,32.1,29.5,29.94,NNW,329,9.0,20.0,90,0.00,,---,0.01,VWS V14.00,2013-01-06 21:11:00,
2013-01-06 16:12:00,31.9,29.0,29.94,WNW,294,10.0,20.0,89,0.00,,---,0.01,VWS V14.00,2013-01-06 21:12:00,
2013-01-06 16:14:00,31.9,29.0,29.94,WSW,241,8.0,20.0,89,0.00,,---,0.01,VWS V14.00,2013-01-06 21:14:00,
2013-01-06 16:16:00,31.9,29.0,29.95,WNW,302,8.0,20.0,89,0.00,,---,0.01,VWS V14.00,2013-01-06 21:16:00,
2013-01-06 16:17:00,31.9,29.0,29.95,WSW,240,6.0,20.0,89,0.00,,---,0.01,VWS V14.00,2013-01-06 21:17:00,
2013-01-06 16:19:00,31.9,29.0,29.95,West,281,9.0,20.0,89,0.00,,---,0.01,VWS V14.00,2013-01-06 21:19:00,
2013-01-06 16:21:00,31.9,29.0,29.95,SW,233,8.0,20.0,89,0.00,,---,0.01,VWS V14.00,2013-01-06 21:21:00,
2013-01-06 16:22:00,31.9,29.0,29.95,SSW,208,8.0,20.0,89,0.00,,---,0.01,VWS V14.00,2013-01-06 21:22:00,
2013-01-06 16:25:00,31.9,29.0,29.95,West,280,8.0,20.0,89,0.00,,---,0.01,VWS V14.00,2013-01-06 21:25:00,
2013-01-06 16:27:00,31.8,28.9,29.95,WNW,287,6.0,20.0,89,0.00,,---,0.01,VWS V14.00,2013-01-06 21:27:00,
2013-01-06 16:30:00,31.8,28.9,29.96,West,271,11.0,20.0,89,0.00,,---,0.01,VWS V14.00,2013-01-06 21:30:00,
2013-01-06 16:32:00,31.8,28.9,29.96,West,278,11.0,20.0,89,0.00,,---,0.01,VWS V14.00,2013-01-06 21:32:00,
2013-01-06 16:33:00,31.8,28.9,29.96,NW,306,10.0,20.0,89,0.00,,---,0.01,VWS V14.00,2013-01-06 21:33:00,
2013-01-06 16:35:00,31.8,28.7,29.96,WSW,243,9.0,20.0,88,0.00,,---,0.01,VWS V14.00,2013-01-06 21:35:00,
2013-01-06 16:37:00,31.8,28.7,29.96,West,275,9.0,20.0,88,0.00,,---,0.01,VWS V14.00,2013-01-06 21:37:00,
2013-01-06 16:38:00,31.8,28.7,29.96,West,277,10.0,20.0,88,0.00,,---,0.01,VWS V14.00,2013-01-06 21:38:00,
2013-01-06 16:40:00,31.8,28.7,29.96,WNW,288,9.0,20.0,88,0.00,,---,0.01,VWS V14.00,2013-01-06 21:40:00,
2013-01-06 16:42:00,31.8,28.4,29.96,SW,233,6.0,20.0,87,0.00,,---,0.01,VWS V14.00,2013-01-06 21:42:00,
2013-01-06 16:43:00,31.8,28.4,29.96,WNW,294,7.0,20.0,87,0.00,,---,0.01,VWS V14.00,2013-01-06 21:43:00,
2013-01-06 16:45:00,31.8,28.4,29.97,WNW,295,4.0,20.0,87,0.00,,---,0.01,VWS V14.00,2013-01-06 21:45:00,
2013-01-06 16:47:00,31.8,28.4,29.97,WNW,282,14.0,20.0,87,0.00,,---,0.01,VWS V14.00,2013-01-06 21:47:00,
2013-01-06 16:48:00,31.8,28.4,29.97,WNW,288,11.0,20.0,87,0.00,,---,0.01,VWS V14.00,2013-01-06 21:48:00,
2013-01-06 16:49:00,31.8,28.4,29.97,WNW,292,7.0,20.0,87,0.00,,---,0.01,VWS V14.00,2013-01-06 21:49:00,
2013-01-06 16:50:00,31.8,28.4,29.97,WNW,296,8.0,20.0,87,0.00,,---,0.01,VWS V14.00,2013-01-06 21:50:00,
2013-01-06 16:52:00,31.8,28.4,29.97,WSW,246,2.0,20.0,87,0.00,,---,0.01,VWS V14.00,2013-01-06 21:52:00,
2013-01-06 16:53:00,31.8,28.1,29.97,WSW,237,4.0,20.0,86,0.00,,---,0.01,VWS V14.00,2013-01-06 21:53:00,
2013-01-06 16:54:00,31.8,28.1,29.97,WSW,250,7.0,20.0,86,0.00,,---,0.01,VWS V14.00,2013-01-06 21:54:00,
2013-01-06 16:55:00,31.8,28.1,29.97,SW,226,8.0,20.0,86,0.00,,---,0.01,VWS V14.00,2013-01-06 21:55:00,
2013-01-06 16:57:00,31.8,28.1,29.97,West,267,4.0,20.0,86,0.00,,---,0.01,VWS V14.00,2013-01-06 21:57:00,
2013-01-06 16:58:00,31.8,28.1,29.97,SW,234,8.0,20.0,86,0.00,,---,0.01,VWS V14.00,2013-01-06 21:58:00,
2013-01-06 16:59:00,31.8,28.1,29.97,West,275,7.0,20.0,86,0.00,,---,0.01,VWS V14.00,2013-01-06 21:59:00,
2013-01-06 17:00:00,31.8,28.1,29.98,SW,232,8.0,20.0,86,0.00,,---,0.01,VWS V14.00,2013-01-06 22:00:00,
2013-01-06 17:03:00,31.8,28.1,29.98,WNW,289,6.0,14.0,86,0.00,,---,0.01,VWS V14.00,2013-01-06 22:03:00,
2013-01-06 17:04:00,31.8,28.1,29.98,WNW,295,9.0,14.0,86,0.00,,---,0.01,VWS V14.00,2013-01-06 22:04:00,
2013-01-06 17:05:00,31.9,28.2,29.98,West,278,7.0,14.0,86,0.00,,---,0.01,VWS V14.00,2013-01-06 22:05:00,
2013-01-06 17:08:00,31.9,28.2,29.98,WSW,241,6.0,14.0,86,0.00,,---,0.01,VWS V14.00,2013-01-06 22:08:00,
2013-01-06 17:09:00,31.9,28.2,29.98,WNW,302,8.0,14.0,86,0.00,,---,0.01,VWS V14.00,2013-01-06 22:09:00,
2013-01-06 17:10:00,31.9,28.2,29.98,SW,215,4.0,14.0,86,0.00,,---,0.01,VWS V14.00,2013-01-06 22:10:00,
2013-01-06 17:13:00,31.9,28.2,29.98,WNW,291,11.0,14.0,86,0.00,,---,0.01,VWS V14.00,2013-01-06 22:13:00,
2013-01-06 17:14:00,31.9,28.2,29.98,SW,234,6.0,14.0,86,0.00,,---,0.01,VWS V14.00,2013-01-06 22:14:00,
2013-01-06 17:16:00,31.9,28.2,29.99,West,277,9.0,14.0,86,0.00,,---,0.01,VWS V14.00,2013-01-06 22:16:00,
2013-01-06 17:18:00,31.9,28.2,29.99,West,281,9.0,14.0,86,0.00,,---,0.01,VWS V14.00,2013-01-06 22:18:00,
2013-01-06 17:19:00,31.9,28.2,29.99,West,281,9.0,14.0,86,0.00,,---,0.01,VWS V14.00,2013-01-06 22:19:00,
2013-01-06 17:21:00,31.9,28.2,29.99,West,281,9.0,14.0,86,0.00,,---,0.01,VWS V14.00,2013-01-06 22:21:00,
2013-01-06 17:23:00,31.9,28.2,29.99,West,281,9.0,14.0,86,0.00,,---,0.01,VWS V14.00,2013-01-06 22:23:00,
2013-01-06 17:24:00,31.9,28.2,29.99,West,281,9.0,14.0,86,0.00,,---,0.01,VWS V14.00,2013-01-06 22:24:00,
2013-01-06 17:26:00,31.9,28.2,29.99,West,281,9.0,14.0,86,0.00,,---,0.01,VWS V14.00,2013-01-06 22:26:00,
2013-01-06 17:28:00,31.9,28.2,29.99,West,281,9.0,14.0,86,0.00,,---,0.01,VWS V14.00,2013-01-06 22:28:00,
2013-01-06 17:29:00,31.9,28.2,29.99,West,281,9.0,14.0,86,0.00,,---,0.01,VWS V14.00,2013-01-06 22:29:00,
2013-01-06 17:31:00,31.9,28.2,29.94,West,281,9.0,14.0,86,0.00,,---,0.01,VWS V14.00,2013-01-06 22:31:00,
2013-01-06 17:33:00,31.9,28.2,29.94,West,281,9.0,14.0,86,0.00,,---,0.01,VWS V14.00,2013-01-06 22:33:00,
2013-01-06 17:34:00,31.9,28.2,29.94,West,281,9.0,14.0,86,0.00,,---,0.01,VWS V14.00,2013-01-06 22:34:00,
2013-01-06 17:36:00,31.9,28.2,29.94,West,281,9.0,14.0,86,0.00,,---,0.01,VWS V14.00,2013-01-06 22:36:00,
2013-01-06 17:38:00,31.9,28.2,29.94,West,281,9.0,14.0,86,0.00,,---,0.01,VWS V14.00,2013-01-06 22:38:00,
2013-01-06 17:39:00,31.9,28.2,29.94,West,281,9.0,14.0,86,0.00,,---,0.01,VWS V14.00,2013-01-06 22:39:00,
2013-01-06 17:42:00,31.9,28.2,29.94,West,281,9.0,14.0,86,0.00,,---,0.01,VWS V14.00,2013-01-06 22:42:00,
2013-01-06 17:43:00,31.9,28.2,29.94,West,281,9.0,14.0,86,0.00,,---,0.01,VWS V14.00,2013-01-06 22:43:00,
2013-01-06 17:44:00,31.9,28.2,29.94,West,281,9.0,14.0,86,0.00,,---,0.01,VWS V14.00,2013-01-06 22:44:00,
2013-01-06 17:47:00,31.9,28.2,29.95,West,281,9.0,14.0,86,0.00,,---,0.01,VWS V14.00,2013-01-06 22:47:00,
2013-01-06 17:49:00,31.9,28.2,29.95,West,281,9.0,14.0,86,0.00,,---,0.01,VWS V14.00,2013-01-06 22:49:00,
2013-01-06 17:52:00,31.9,28.2,29.95,West,281,9.0,14.0,86,0.00,,---,0.01,VWS V14.00,2013-01-06 22:52:00,
2013-01-06 17:54:00,31.9,28.2,29.95,West,281,9.0,14.0,86,0.00,,---,0.01,VWS V14.00,2013-01-06 22:54:00,
2013-01-06 17:55:00,31.9,28.2,29.95,West,281,9.0,14.0,86,0.00,,---,0.01,VWS V14.00,2013-01-06 22:55:00,
2013-01-06 17:57:00,31.9,28.2,29.95,West,281,9.0,14.0,86,0.00,,---,0.01,VWS V14.00,2013-01-06 22:57:00,
2013-01-06 17:59:00,31.9,28.2,29.95,West,281,9.0,14.0,86,0.00,,---,0.01,VWS V14.00,2013-01-06 22:59:00,
2013-01-06 18:00:00,31.9,28.2,29.96,West,281,9.0,14.0,86,0.00,,---,0.01,VWS V14.00,2013-01-06 23:00:00,
2013-01-06 18:02:00,31.9,28.2,29.96,West,281,9.0,9.0,86,0.00,,---,0.01,VWS V14.00,2013-01-06 23:02:00,
2013-01-06 18:04:00,31.9,28.2,29.96,West,281,9.0,9.0,86,0.00,,---,0.01,VWS V14.00,2013-01-06 23:04:00,
2013-01-06 18:05:00,31.9,28.2,29.96,West,281,9.0,9.0,86,0.00,,---,0.01,VWS V14.00,2013-01-06 23:05:00,
2013-01-06 18:07:00,31.9,28.2,29.96,West,281,9.0,9.0,86,0.00,,---,0.01,VWS V14.00,2013-01-06 23:07:00,
2013-01-06 18:09:00,31.9,28.2,29.96,West,281,9.0,9.0,86,0.00,,---,0.01,VWS V14.00,2013-01-06 23:09:00,
2013-01-06 18:10:00,31.9,28.2,29.96,West,281,9.0,9.0,86,0.00,,---,0.01,VWS V14.00,2013-01-06 23:10:00,
2013-01-06 18:12:00,31.9,28.2,29.96,West,281,9.0,9.0,86,0.00,,---,0.01,VWS V14.00,2013-01-06 23:12:00,
2013-01-06 18:14:00,31.9,28.2,30.02,West,281,9.0,9.0,86,0.00,,---,0.01,VWS V14.00,2013-01-06 23:14:00,
2013-01-06 18:15:00,31.9,28.2,30.02,West,281,9.0,9.0,86,0.00,,---,0.01,VWS V14.00,2013-01-06 23:15:00,
2013-01-06 18:17:00,31.9,28.2,30.02,West,281,9.0,9.0,86,0.00,,---,0.01,VWS V14.00,2013-01-06 23:17:00,
2013-01-06 18:19:00,32.1,28.4,30.02,West,272,6.0,9.0,86,0.00,,---,0.01,VWS V14.00,2013-01-06 23:19:00,
2013-01-06 18:20:00,32.1,28.4,30.02,West,278,9.0,11.0,86,0.00,,---,0.01,VWS V14.00,2013-01-06 23:20:00,
2013-01-06 18:22:00,32.1,27.5,30.02,West,270,6.0,11.0,83,0.00,,---,0.01,VWS V14.00,2013-01-06 23:22:00,
2013-01-06 18:25:00,32.1,27.5,30.02,West,278,4.0,11.0,83,0.00,,---,0.01,VWS V14.00,2013-01-06 23:25:00,
2013-01-06 18:27:00,32.1,27.5,30.02,West,281,6.0,11.0,83,0.00,,---,0.01,VWS V14.00,2013-01-06 23:27:00,
2013-01-06 18:30:00,32.1,27.5,30.04,West,280,9.0,11.0,83,0.00,,---,0.01,VWS V14.00,2013-01-06 23:30:00,
2013-01-06 18:31:00,32.1,27.5,30.04,WNW,289,4.0,11.0,83,0.00,,---,0.01,VWS V14.00,2013-01-06 23:31:00,
2013-01-06 18:33:00,32.1,27.5,30.04,West,281,7.0,11.0,83,0.00,,---,0.01,VWS V14.00,2013-01-06 23:33:00,
2013-01-06 18:35:00,32.1,27.5,30.04,West,281,2.0,13.0,83,0.00,,---,0.01,VWS V14.00,2013-01-06 23:35:00,
2013-01-06 18:36:00,32.1,27.5,30.04,WNW,282,7.0,13.0,83,0.00,,---,0.01,VWS V14.00,2013-01-06 23:36:00,
2013-01-06 18:38:00,32.1,27.5,30.04,WNW,282,8.0,13.0,83,0.00,,---,0.01,VWS V14.00,2013-01-06 23:38:00,
2013-01-06 18:40:00,32.1,27.5,30.04,WNW,298,4.0,13.0,83,0.00,,---,0.01,VWS V14.00,2013-01-06 23:40:00,
2013-01-06 18:41:00,32.1,27.5,30.04,WNW,298,7.0,13.0,83,0.00,,---,0.01,VWS V14.00,2013-01-06 23:41:00,
2013-01-06 18:43:00,32.1,27.5,30.04,WNW,284,8.0,13.0,83,0.00,,---,0.01,VWS V14.00,2013-01-06 23:43:00,
2013-01-06 18:45:00,32.1,27.5,30.05,West,264,9.0,13.0,83,0.00,,---,0.01,VWS V14.00,2013-01-06 23:45:00,
2013-01-06 18:46:00,32.1,27.5,30.05,WNW,282,7.0,13.0,83,0.00,,---,0.01,VWS V14.00,2013-01-06 23:46:00,
2013-01-06 18:48:00,32.1,27.5,30.05,WNW,285,8.0,13.0,83,0.00,,---,0.01,VWS V14.00,2013-01-06 23:48:00,
2013-01-06 18:50:00,32.1,27.5,30.05,WSW,257,6.0,13.0,83,0.00,,---,0.01,VWS V14.00,2013-01-06 23:50:00,
2013-01-06 18:51:00,32.1,27.5,30.05,SSW,213,7.0,13.0,83,0.00,,---,0.01,VWS V14.00,2013-01-06 23:51:00,
2013-01-06 18:53:00,32.2,27.6,30.05,WNW,282,6.0,13.0,83,0.00,,---,0.01,VWS V14.00,2013-01-06 23:53:00,
2013-01-06 18:56:00,32.2,27.6,30.05,WNW,284,4.0,13.0,83,0.00,,---,0.01,VWS V14.00,2013-01-06 23:56:00,
2013-01-06 18:58:00,32.2,27.6,30.05,WNW,291,4.0,13.0,83,0.00,,---,0.01,VWS V14.00,2013-01-06 23:58:00,
2013-01-06 19:01:00,32.2,27.6,30.06,WNW,296,6.0,7.0,83,0.00,,---,0.01,VWS V14.00,2013-01-07 00:01:00,
2013-01-06 19:03:00,32.2,27.6,30.06,SW,233,6.0,8.0,83,0.00,,---,0.01,VWS V14.00,2013-01-07 00:03:00,
2013-01-06 19:06:00,32.2,27.6,30.06,WNW,294,9.0,9.0,83,0.00,,---,0.01,VWS V14.00,2013-01-07 00:06:00,
2013-01-06 19:08:00,32.2,27.6,30.06,WNW,291,6.0,10.0,83,0.00,,---,0.01,VWS V14.00,2013-01-07 00:08:00,
2013-01-06 19:11:00,32.2,27.6,30.06,WNW,285,4.0,10.0,83,0.00,,---,0.01,VWS V14.00,2013-01-07 00:11:00,
2013-01-06 19:12:00,32.1,27.5,30.06,West,278,4.0,10.0,83,0.00,,---,0.01,VWS V14.00,2013-01-07 00:12:00,
2013-01-06 19:13:00,32.1,27.5,30.06,West,280,8.0,10.0,83,0.00,,---,0.01,VWS V14.00,2013-01-07 00:13:00,
2013-01-06 19:16:00,32.1,27.5,30.07,WNW,282,4.0,10.0,83,0.00,,---,0.01,VWS V14.00,2013-01-07 00:16:00,
2013-01-06 19:17:00,32.1,27.5,30.07,WNW,292,2.0,10.0,83,0.00,,---,0.01,VWS V14.00,2013-01-07 00:17:00,
2013-01-06 19:18:00,32.1,27.5,30.07,WNW,292,6.0,10.0,83,0.00,,---,0.01,VWS V14.00,2013-01-07 00:18:00,
2013-01-06 19:21:00,32.1,27.8,30.07,WNW,296,7.0,10.0,84,0.00,,---,0.01,VWS V14.00,2013-01-07 00:21:00,
2013-01-06 19:22:00,32.1,27.8,30.07,WNW,291,4.0,10.0,84,0.00,,---,0.01,VWS V14.00,2013-01-07 00:22:00,
2013-01-06 19:23:00,32.1,27.8,30.07,WNW,296,7.0,10.0,84,0.00,,---,0.01,VWS V14.00,2013-01-07 00:23:00,
2013-01-06 19:26:00,32.1,27.8,30.07,WNW,298,4.0,10.0,84,0.00,,---,0.01,VWS V14.00,2013-01-07 00:26:00,
2013-01-06 19:27:00,32.1,27.8,30.07,WNW,298,4.0,10.0,84,0.00,,---,0.01,VWS V14.00,2013-01-07 00:27:00,
2013-01-06 19:28:00,32.1,27.8,30.07,WNW,288,8.0,10.0,84,0.00,,---,0.01,VWS V14.00,2013-01-07 00:28:00,
2013-01-06 19:31:00,32.1,27.8,30.08,WSW,248,6.0,10.0,84,0.00,,---,0.01,VWS V14.00,2013-01-07 00:31:00,
2013-01-06 19:32:00,32.1,27.8,30.08,WSW,247,8.0,10.0,84,0.00,,---,0.01,VWS V14.00,2013-01-07 00:32:00,
2013-01-06 19:33:00,32.1,27.8,30.08,WSW,247,8.0,10.0,84,0.00,,---,0.01,VWS V14.00,2013-01-07 00:33:00,
2013-01-06 19:36:00,32.1,27.8,30.08,West,280,7.0,11.0,84,0.00,,---,0.01,VWS V14.00,2013-01-07 00:36:00,
2013-01-06 19:37:00,32.1,27.8,30.08,West,280,7.0,11.0,84,0.00,,---,0.01,VWS V14.00,2013-01-07 00:37:00,
2013-01-06 19:39:00,32.1,27.8,30.08,NW,304,6.0,11.0,84,0.00,,---,0.01,VWS V14.00,2013-01-07 00:39:00,
2013-01-06 19:41:00,32.1,27.8,30.08,NW,304,6.0,11.0,84,0.00,,---,0.01,VWS V14.00,2013-01-07 00:41:00,
2013-01-06 19:42:00,32.1,27.8,30.08,WNW,292,6.0,11.0,84,0.00,,---,0.01,VWS V14.00,2013-01-07 00:42:00,
2013-01-06 19:43:00,32.1,27.8,30.08,West,278,4.0,11.0,84,0.00,,---,0.01,VWS V14.00,2013-01-07 00:43:00,
2013-01-06 19:44:00,32.1,27.8,30.08,SW,234,6.0,11.0,84,0.00,,---,0.01,VWS V14.00,2013-01-07 00:44:00,
2013-01-06 19:46:00,32.1,27.8,30.08,WNW,287,4.0,14.0,84,0.00,,---,0.01,VWS V14.00,2013-01-07 00:46:00,
2013-01-06 19:47:00,32.1,27.8,30.08,WNW,291,2.0,14.0,84,0.00,,---,0.01,VWS V14.00,2013-01-07 00:47:00,
2013-01-06 19:48:00,32.1,27.8,30.08,WNW,292,9.0,14.0,84,0.00,,---,0.01,VWS V14.00,2013-01-07 00:48:00,
2013-01-06 19:49:00,32.1,27.8,30.08,WNW,282,10.0,14.0,84,0.00,,---,0.01,VWS V14.00,2013-01-07 00:49:00,
2013-01-06 19:51:00,32.1,27.8,30.08,WNW,298,6.0,14.0,84,0.00,,---,0.01,VWS V14.00,2013-01-07 00:51:00,
2013-01-06 19:53:00,32.1,27.8,30.08,WNW,284,4.0,14.0,84,0.00,,---,0.01,VWS V14.00,2013-01-07 00:53:00,
2013-01-06 19:54:00,32.1,27.8,30.08,WNW,292,8.0,14.0,84,0.00,,---,0.01,VWS V14.00,2013-01-07 00:54:00,
2013-01-06 19:56:00,32.1,27.5,30.08,NW,305,7.0,14.0,83,0.00,,---,0.01,VWS V14.00,2013-01-07 00:56:00,
2013-01-06 19:58:00,32.1,27.5,30.08,NW,309,6.0,14.0,83,0.00,,---,0.01,VWS V14.00,2013-01-07 00:58:00,
2013-01-06 19:59:00,32.1,27.5,30.08,WNW,302,6.0,14.0,83,0.00,,---,0.01,VWS V14.00,2013-01-07 00:59:00,
2013-01-06 20:01:00,32.1,27.5,30.09,WNW,292,9.0,9.0,83,0.00,,---,0.01,VWS V14.00,2013-01-07 01:01:00,
2013-01-06 20:03:00,32.1,27.5,30.09,NW,315,4.0,10.0,83,0.00,,---,0.01,VWS V14.00,2013-01-07 01:03:00,
2013-01-06 20:04:00,32.1,27.5,30.09,NW,313,6.0,10.0,83,0.00,,---,0.01,VWS V14.00,2013-01-07 01:04:00,
2013-01-06 20:06:00,32.1,27.5,30.09,NNW,333,4.0,11.0,83,0.00,,---,0.01,VWS V14.00,2013-01-07 01:06:00,
2013-01-06 20:08:00,32.1,27.5,30.09,NW,305,4.0,11.0,83,0.00,,---,0.01,VWS V14.00,2013-01-07 01:08:00,
2013-01-06 20:09:00,32.1,27.5,30.09,WNW,295,6.0,11.0,83,0.00,,---,0.01,VWS V14.00,2013-01-07 01:09:00,
2013-01-06 20:12:00,32.1,27.5,30.09,NW,308,7.0,11.0,83,0.00,,---,0.01,VWS V14.00,2013-01-07 01:12:00,
2013-01-06 20:13:00,32.1,27.5,30.09,WNW,294,7.0,11.0,83,0.00,,---,0.01,VWS V14.00,2013-01-07 01:13:00,
2013-01-06 20:14:00,32.1,27.5,30.09,WNW,298,4.0,11.0,83,0.00,,---,0.01,VWS V14.00,2013-01-07 01:14:00,
2013-01-06 20:17:00,32.1,27.2,30.09,WNW,302,4.0,11.0,82,0.00,,---,0.01,VWS V14.00,2013-01-07 01:17:00,
2013-01-06 20:18:00,32.1,27.2,30.09,NW,308,6.0,11.0,82,0.00,,---,0.01,VWS V14.00,2013-01-07 01:18:00,
2013-01-06 20:19:00,32.1,27.2,30.09,WNW,289,4.0,11.0,82,0.00,,---,0.01,VWS V14.00,2013-01-07 01:19:00,
2013-01-06 20:20:00,32.1,27.2,30.09,NW,312,6.0,11.0,82,0.00,,---,0.01,VWS V14.00,2013-01-07 01:20:00,
2013-01-06 20:22:00,32.1,27.2,30.09,WNW,296,4.0,11.0,82,0.00,,---,0.01,VWS V14.00,2013-01-07 01:22:00,
2013-01-06 20:23:00,32.1,27.2,30.09,NW,323,9.0,11.0,82,0.00,,---,0.01,VWS V14.00,2013-01-07 01:23:00,
2013-01-06 20:24:00,32.1,27.2,30.09,NW,323,9.0,11.0,82,0.00,,---,0.01,VWS V14.00,2013-01-07 01:24:00,
2013-01-06 20:25:00,32.1,27.2,30.09,NW,313,2.0,11.0,82,0.00,,---,0.01,VWS V14.00,2013-01-07 01:25:00,
2013-01-06 20:27:00,32.1,27.2,30.09,NW,304,6.0,11.0,82,0.00,,---,0.01,VWS V14.00,2013-01-07 01:27:00,
2013-01-06 20:28:00,32.1,27.2,30.09,WNW,294,8.0,11.0,82,0.00,,---,0.01,VWS V14.00,2013-01-07 01:28:00,
2013-01-06 20:30:00,32.1,27.2,30.10,WNW,292,6.0,11.0,82,0.00,,---,0.01,VWS V14.00,2013-01-07 01:30:00,
2013-01-06 20:32:00,32.1,27.2,30.10,WNW,292,6.0,11.0,82,0.00,,---,0.01,VWS V14.00,2013-01-07 01:32:00,
2013-01-06 20:33:00,32.1,27.2,30.10,WNW,289,10.0,11.0,82,0.00,,---,0.01,VWS V14.00,2013-01-07 01:33:00,
2013-01-06 20:35:00,32.1,27.2,30.10,WNW,296,10.0,11.0,82,0.00,,---,0.01,VWS V14.00,2013-01-07 01:35:00,
2013-01-06 20:37:00,32.1,26.9,30.10,WNW,299,6.0,11.0,81,0.00,,---,0.01,VWS V14.00,2013-01-07 01:37:00,
2013-01-06 20:38:00,32.1,26.9,30.10,NW,304,9.0,11.0,81,0.00,,---,0.01,VWS V14.00,2013-01-07 01:38:00,
2013-01-06 20:40:00,32.1,26.9,30.10,WNW,291,8.0,11.0,81,0.00,,---,0.01,VWS V14.00,2013-01-07 01:40:00,
2013-01-06 20:42:00,32.1,26.9,30.10,WNW,298,7.0,14.0,81,0.00,,---,0.01,VWS V14.00,2013-01-07 01:42:00,
2013-01-06 20:43:00,32.1,26.9,30.10,WNW,294,7.0,14.0,81,0.00,,---,0.01,VWS V14.00,2013-01-07 01:43:00,
2013-01-06 20:45:00,32.1,26.6,30.11,WNW,296,6.0,14.0,80,0.00,,---,0.01,VWS V14.00,2013-01-07 01:45:00,
2013-01-06 20:46:00,32.1,26.6,30.11,WNW,287,7.0,14.0,80,0.00,,---,0.01,VWS V14.00,2013-01-07 01:46:00,
2013-01-06 20:47:00,32.1,26.6,30.11,NW,309,8.0,14.0,80,0.00,,---,0.01,VWS V14.00,2013-01-07 01:47:00,
2013-01-06 20:48:00,32.1,26.6,30.11,NW,312,7.0,14.0,80,0.00,,---,0.01,VWS V14.00,2013-01-07 01:48:00,
2013-01-06 20:50:00,32.1,26.6,30.11,West,278,6.0,14.0,80,0.00,,---,0.01,VWS V14.00,2013-01-07 01:50:00,
2013-01-06 20:51:00,32.1,26.6,30.11,WNW,287,9.0,14.0,80,0.00,,---,0.01,VWS V14.00,2013-01-07 01:51:00,
2013-01-06 20:52:00,32.1,26.6,30.11,WNW,298,8.0,14.0,80,0.00,,---,0.01,VWS V14.00,2013-01-07 01:52:00,
2013-01-06 20:54:00,32.1,26.6,30.11,NW,306,8.0,14.0,80,0.00,,---,0.01,VWS V14.00,2013-01-07 01:54:00,
2013-01-06 20:56:00,32.1,26.6,30.11,WNW,296,7.0,14.0,80,0.00,,---,0.01,VWS V14.00,2013-01-07 01:56:00,
2013-01-06 20:57:00,32.1,26.3,30.11,NW,308,8.0,14.0,79,0.00,,---,0.01,VWS V14.00,2013-01-07 01:57:00,
2013-01-06 20:59:00,32.1,26.3,30.11,WNW,292,6.0,14.0,79,0.00,,---,0.01,VWS V14.00,2013-01-07 01:59:00,
2013-01-06 21:01:00,32.1,26.3,30.12,WNW,292,6.0,11.0,79,0.00,,---,0.01,VWS V14.00,2013-01-07 02:01:00,
2013-01-06 21:02:00,32.1,26.3,30.12,NW,306,8.0,11.0,79,0.00,,---,0.01,VWS V14.00,2013-01-07 02:02:00,
2013-01-06 21:04:00,32.1,26.3,30.12,WNW,288,9.0,11.0,79,0.00,,---,0.01,VWS V14.00,2013-01-07 02:04:00,
2013-01-06 21:06:00,32.1,26.3,30.12,NW,305,6.0,11.0,79,0.00,,---,0.01,VWS V14.00,2013-01-07 02:06:00,
2013-01-06 21:08:00,32.1,26.0,30.12,WNW,294,10.0,11.0,78,0.00,,---,0.01,VWS V14.00,2013-01-07 02:08:00,
2013-01-06 21:09:00,32.1,26.0,30.12,WNW,289,8.0,11.0,78,0.00,,---,0.01,VWS V14.00,2013-01-07 02:09:00,
2013-01-06 21:11:00,32.1,26.0,30.12,NW,311,8.0,11.0,78,0.00,,---,0.01,VWS V14.00,2013-01-07 02:11:00,
2013-01-06 21:13:00,32.1,26.0,30.12,NW,309,7.0,11.0,78,0.00,,---,0.01,VWS V14.00,2013-01-07 02:13:00,
2013-01-06 21:14:00,32.1,26.0,30.12,WNW,295,7.0,11.0,78,0.00,,---,0.01,VWS V14.00,2013-01-07 02:14:00,
2013-01-06 21:16:00,32.1,26.0,30.12,WNW,289,9.0,11.0,78,0.00,,---,0.01,VWS V14.00,2013-01-07 02:16:00,
2013-01-06 21:18:00,32.1,26.0,30.12,WNW,291,6.0,11.0,78,0.00,,---,0.01,VWS V14.00,2013-01-07 02:18:00,
2013-01-06 21:19:00,32.1,26.0,30.12,WNW,291,9.0,11.0,78,0.00,,---,0.01,VWS V14.00,2013-01-07 02:19:00,
2013-01-06 21:21:00,32.1,25.7,30.12,WNW,298,6.0,11.0,77,0.00,,---,0.01,VWS V14.00,2013-01-07 02:21:00,
2013-01-06 21:23:00,32.1,25.7,30.12,West,277,10.0,11.0,77,0.00,,---,0.01,VWS V14.00,2013-01-07 02:23:00,
2013-01-06 21:24:00,32.1,25.7,30.12,WNW,301,8.0,11.0,77,0.00,,---,0.01,VWS V14.00,2013-01-07 02:24:00,
2013-01-06 21:26:00,32.1,25.7,30.12,WNW,292,7.0,11.0,77,0.00,,---,0.01,VWS V14.00,2013-01-07 02:26:00,
2013-01-06 21:28:00,32.1,25.7,30.12,WNW,295,7.0,11.0,77,0.00,,---,0.01,VWS V14.00,2013-01-07 02:28:00,
2013-01-06 21:29:00,32.1,25.7,30.12,WNW,295,7.0,11.0,77,0.00,,---,0.01,VWS V14.00,2013-01-07 02:29:00,
2013-01-06 21:31:00,32.1,25.4,30.13,WNW,291,13.0,13.0,76,0.00,,---,0.01,VWS V14.00,2013-01-07 02:31:00,
2013-01-06 21:33:00,32.1,25.4,30.13,WNW,299,6.0,13.0,76,0.00,,---,0.01,VWS V14.00,2013-01-07 02:33:00,
2013-01-06 21:34:00,32.1,25.4,30.13,WNW,292,7.0,13.0,76,0.00,,---,0.01,VWS V14.00,2013-01-07 02:34:00,
2013-01-06 21:36:00,32.1,25.4,30.13,WNW,301,10.0,13.0,76,0.00,,---,0.01,VWS V14.00,2013-01-07 02:36:00,
2013-01-06 21:38:00,32.1,25.4,30.13,NW,304,8.0,13.0,76,0.00,,---,0.01,VWS V14.00,2013-01-07 02:38:00,
2013-01-06 21:39:00,32.1,25.4,30.13,WNW,299,6.0,13.0,76,0.00,,---,0.01,VWS V14.00,2013-01-07 02:39:00,
2013-01-06 21:41:00,32.1,25.4,30.13,NW,305,6.0,13.0,76,0.00,,---,0.01,VWS V14.00,2013-01-07 02:41:00,
2013-01-06 21:42:00,32.1,25.4,30.13,WNW,299,8.0,13.0,76,0.00,,---,0.01,VWS V14.00,2013-01-07 02:42:00,
2013-01-06 21:43:00,32.1,25.4,30.13,NW,306,8.0,13.0,76,0.00,,---,0.01,VWS V14.00,2013-01-07 02:43:00,
2013-01-06 21:44:00,32.1,25.4,30.14,NW,304,4.0,13.0,76,0.00,,---,0.01,VWS V14.00,2013-01-07 02:44:00,
2013-01-06 21:46:00,32.1,25.4,30.14,NW,315,6.0,13.0,76,0.00,,---,0.01,VWS V14.00,2013-01-07 02:46:00,
2013-01-06 21:47:00,32.1,25.4,30.14,NW,304,4.0,13.0,76,0.00,,---,0.01,VWS V14.00,2013-01-07 02:47:00,
2013-01-06 21:48:00,32.1,25.4,30.14,NW,308,8.0,13.0,76,0.00,,---,0.01,VWS V14.00,2013-01-07 02:48:00,
2013-01-06 21:49:00,31.9,25.2,30.14,NW,306,7.0,13.0,76,0.00,,---,0.01,VWS V14.00,2013-01-07 02:49:00,
2013-01-06 21:52:00,31.9,24.9,30.14,NNW,339,8.0,13.0,75,0.00,,---,0.01,VWS V14.00,2013-01-07 02:52:00,
2013-01-06 21:53:00,31.9,24.9,30.14,NW,313,2.0,13.0,75,0.00,,---,0.01,VWS V14.00,2013-01-07 02:53:00,
2013-01-06 21:54:00,31.9,24.9,30.14,WNW,296,6.0,13.0,75,0.00,,---,0.01,VWS V14.00,2013-01-07 02:54:00,
2013-01-06 21:57:00,31.9,24.9,30.14,WNW,294,10.0,13.0,75,0.00,,---,0.01,VWS V14.00,2013-01-07 02:57:00,
2013-01-06 21:58:00,31.9,24.9,30.14,WNW,295,8.0,13.0,75,0.00,,---,0.01,VWS V14.00,2013-01-07 02:58:00,
2013-01-06 21:59:00,31.9,24.9,30.14,WNW,292,10.0,13.0,75,0.00,,---,0.01,VWS V14.00,2013-01-07 02:59:00,
2013-01-06 22:02:00,31.9,24.9,30.14,NW,308,6.0,11.0,75,0.00,,---,0.01,VWS V14.00,2013-01-07 03:02:00,
2013-01-06 22:03:00,31.9,24.9,30.14,NW,323,2.0,11.0,75,0.00,,---,0.01,VWS V14.00,2013-01-07 03:03:00,
2013-01-06 22:05:00,31.9,24.9,30.14,NW,318,6.0,11.0,75,0.00,,---,0.01,VWS V14.00,2013-01-07 03:05:00,
2013-01-06 22:07:00,31.9,24.9,30.14,NW,320,2.0,11.0,75,0.00,,---,0.01,VWS V14.00,2013-01-07 03:07:00,
2013-01-06 22:08:00,31.9,24.9,30.14,WNW,291,7.0,11.0,75,0.00,,---,0.01,VWS V14.00,2013-01-07 03:08:00,
2013-01-06 22:10:00,31.9,24.9,30.14,NW,305,4.0,11.0,75,0.00,,---,0.01,VWS V14.00,2013-01-07 03:10:00,
2013-01-06 22:12:00,31.9,24.9,30.14,WNW,292,9.0,11.0,75,0.00,,---,0.01,VWS V14.00,2013-01-07 03:12:00,
2013-01-06 22:13:00,31.9,24.9,30.14,WNW,299,11.0,11.0,75,0.00,,---,0.01,VWS V14.00,2013-01-07 03:13:00,
2013-01-06 22:15:00,31.9,24.9,30.14,NW,318,7.0,11.0,75,0.00,,---,0.01,VWS V14.00,2013-01-07 03:15:00,
2013-01-06 22:17:00,31.9,24.9,30.14,NW,304,6.0,11.0,75,0.00,,---,0.01,VWS V14.00,2013-01-07 03:17:00,
2013-01-06 22:18:00,31.9,24.9,30.14,NW,306,6.0,11.0,75,0.00,,---,0.01,VWS V14.00,2013-01-07 03:18:00,
2013-01-06 22:20:00,31.9,24.9,30.14,WNW,285,8.0,13.0,75,0.00,,---,0.01,VWS V14.00,2013-01-07 03:20:00,
2013-01-06 22:22:00,31.9,24.9,30.14,WNW,298,6.0,13.0,75,0.00,,---,0.01,VWS V14.00,2013-01-07 03:22:00,
2013-01-06 22:23:00,31.9,24.9,30.14,NW,322,6.0,13.0,75,0.00,,---,0.01,VWS V14.00,2013-01-07 03:23:00,
2013-01-06 22:25:00,31.9,24.9,30.14,NW,323,7.0,13.0,75,0.00,,---,0.01,VWS V14.00,2013-01-07 03:25:00,
2013-01-06 22:27:00,31.9,24.9,30.14,NW,319,2.0,13.0,75,0.00,,---,0.01,VWS V14.00,2013-01-07 03:27:00,
2013-01-06 22:28:00,31.9,24.9,30.14,NNW,332,8.0,13.0,75,0.00,,---,0.01,VWS V14.00,2013-01-07 03:28:00,
2013-01-06 22:30:00,31.9,24.9,30.15,NW,323,6.0,13.0,75,0.00,,---,0.01,VWS V14.00,2013-01-07 03:30:00,
2013-01-06 22:32:00,31.9,24.9,30.15,NW,316,4.0,13.0,75,0.00,,---,0.01,VWS V14.00,2013-01-07 03:32:00,
2013-01-06 22:33:00,31.9,24.9,30.15,NW,320,6.0,13.0,75,0.00,,---,0.01,VWS V14.00,2013-01-07 03:33:00,
2013-01-06 22:35:00,31.9,24.9,30.15,NW,320,4.0,13.0,75,0.00,,---,0.01,VWS V14.00,2013-01-07 03:35:00,
2013-01-06 22:38:00,31.9,24.9,30.15,NW,311,2.0,13.0,75,0.00,,---,0.01,VWS V14.00,2013-01-07 03:38:00,
2013-01-06 22:40:00,31.9,24.9,30.15,WNW,302,4.0,13.0,75,0.00,,---,0.01,VWS V14.00,2013-01-07 03:40:00,
2013-01-06 22:43:00,31.9,24.9,30.15,NW,325,2.0,13.0,75,0.00,,---,0.01,VWS V14.00,2013-01-07 03:43:00,
2013-01-06 22:45:00,31.9,24.9,30.16,NW,313,7.0,13.0,75,0.00,,---,0.01,VWS V14.00,2013-01-07 03:45:00,
2013-01-06 22:48:00,31.9,24.9,30.16,NNW,335,4.0,13.0,75,0.00,,---,0.01,VWS V14.00,2013-01-07 03:48:00,
2013-01-06 22:49:00,31.9,24.9,30.16,NNW,335,4.0,13.0,75,0.00,,---,0.01,VWS V14.00,2013-01-07 03:49:00,
2013-01-06 22:51:00,31.9,24.9,30.16,NNW,333,1.0,13.0,75,0.00,,---,0.01,VWS V14.00,2013-01-07 03:51:00,
2013-01-06 22:53:00,31.9,24.9,30.16,WNW,284,7.0,13.0,75,0.00,,---,0.01,VWS V14.00,2013-01-07 03:53:00,
2013-01-06 22:54:00,31.9,24.9,30.16,WNW,301,7.0,13.0,75,0.00,,---,0.01,VWS V14.00,2013-01-07 03:54:00,
2013-01-06 22:55:00,31.9,24.9,30.16,NNW,346,7.0,13.0,75,0.00,,---,0.01,VWS V14.00,2013-01-07 03:55:00,
2013-01-06 22:58:00,31.9,24.9,30.16,WNW,295,6.0,13.0,75,0.00,,---,0.01,VWS V14.00,2013-01-07 03:58:00,
2013-01-06 22:59:00,31.9,24.9,30.16,WNW,289,7.0,13.0,75,0.00,,---,0.01,VWS V14.00,2013-01-07 03:59:00,
2013-01-06 23:01:00,31.9,24.6,30.17,NW,305,1.0,2.0,74,0.00,,---,0.01,VWS V14.00,2013-01-07 04:01:00,
2013-01-06 23:03:00,31.8,24.5,30.17,NW,308,1.0,7.0,74,0.00,,---,0.01,VWS V14.00,2013-01-07 04:03:00,
2013-01-06 23:04:00,31.8,24.5,30.17,NW,308,1.0,7.0,74,0.00,,---,0.01,VWS V14.00,2013-01-07 04:04:00,
2013-01-06 23:06:00,31.8,24.5,30.17,NNW,329,2.0,7.0,74,0.00,,---,0.01,VWS V14.00,2013-01-07 04:06:00,
2013-01-06 23:08:00,31.8,24.5,30.17,North,0,2.0,7.0,74,0.00,,---,0.01,VWS V14.00,2013-01-07 04:08:00,
2013-01-06 23:09:00,31.8,24.5,30.17,WNW,296,6.0,8.0,74,0.00,,---,0.01,VWS V14.00,2013-01-07 04:09:00,
2013-01-06 23:11:00,31.8,24.5,30.17,NW,313,2.0,8.0,74,0.00,,---,0.01,VWS V14.00,2013-01-07 04:11:00,
2013-01-06 23:13:00,31.8,24.5,30.17,NW,309,6.0,8.0,74,0.00,,---,0.01,VWS V14.00,2013-01-07 04:13:00,
2013-01-06 23:14:00,31.8,24.5,30.17,NW,309,2.0,8.0,74,0.00,,---,0.01,VWS V14.00,2013-01-07 04:14:00,
2013-01-06 23:16:00,31.8,24.8,30.18,NW,309,6.0,8.0,75,0.00,,---,0.01,VWS V14.00,2013-01-07 04:16:00,
2013-01-06 23:18:00,31.8,24.8,30.18,NW,311,4.0,8.0,75,0.00,,---,0.01,VWS V14.00,2013-01-07 04:18:00,
2013-01-06 23:19:00,31.8,24.8,30.18,NW,311,4.0,8.0,75,0.00,,---,0.01,VWS V14.00,2013-01-07 04:19:00,
2013-01-06 23:21:00,31.8,24.8,30.18,NW,311,2.0,8.0,75,0.00,,---,0.01,VWS V14.00,2013-01-07 04:21:00,
2013-01-06 23:23:00,31.8,24.8,30.18,NW,309,4.0,8.0,75,0.00,,---,0.01,VWS V14.00,2013-01-07 04:23:00,
2013-01-06 23:24:00,31.8,24.8,30.18,NW,305,4.0,8.0,75,0.00,,---,0.01,VWS V14.00,2013-01-07 04:24:00,
2013-01-06 23:26:00,31.8,24.8,30.18,WNW,289,6.0,8.0,75,0.00,,---,0.01,VWS V14.00,2013-01-07 04:26:00,
2013-01-06 23:28:00,31.8,24.8,30.18,WNW,302,8.0,8.0,75,0.00,,---,0.01,VWS V14.00,2013-01-07 04:28:00,
2013-01-06 23:29:00,31.8,24.8,30.19,WNW,294,6.0,9.0,75,0.00,,---,0.01,VWS V14.00,2013-01-07 04:29:00,
2013-01-06 23:32:00,31.8,24.8,30.19,WNW,292,6.0,9.0,75,0.00,,---,0.01,VWS V14.00,2013-01-07 04:32:00,
2013-01-06 23:34:00,31.8,24.8,30.19,WNW,292,4.0,9.0,75,0.00,,---,0.01,VWS V14.00,2013-01-07 04:34:00,
2013-01-06 23:35:00,31.8,24.8,30.19,WNW,289,4.0,9.0,75,0.00,,---,0.01,VWS V14.00,2013-01-07 04:35:00,
2013-01-06 23:37:00,31.8,24.8,30.19,WNW,301,6.0,9.0,75,0.00,,---,0.01,VWS V14.00,2013-01-07 04:37:00,
2013-01-06 23:39:00,31.8,24.8,30.19,WNW,299,4.0,9.0,75,0.00,,---,0.01,VWS V14.00,2013-01-07 04:39:00,
2013-01-06 23:40:00,31.8,24.8,30.19,WNW,299,2.0,9.0,75,0.00,,---,0.01,VWS V14.00,2013-01-07 04:40:00,
2013-01-06 23:42:00,31.8,24.8,30.19,WNW,296,2.0,9.0,75,0.00,,---,0.01,VWS V14.00,2013-01-07 04:42:00,
2013-01-06 23:44:00,31.8,24.8,30.19,WNW,288,7.0,9.0,75,0.00,,---,0.01,VWS V14.00,2013-01-07 04:44:00,
2013-01-06 23:45:00,31.8,24.8,30.19,WNW,288,4.0,9.0,75,0.00,,---,0.01,VWS V14.00,2013-01-07 04:45:00,
2013-01-06 23:47:00,31.6,24.6,30.19,WNW,291,8.0,9.0,75,0.00,,---,0.01,VWS V14.00,2013-01-07 04:47:00,
2013-01-06 23:49:00,31.6,24.6,30.19,NNW,346,6.0,9.0,75,0.00,,---,0.01,VWS V14.00,2013-01-07 04:49:00,
2013-01-06 23:50:00,31.6,24.6,30.19,NW,306,6.0,9.0,75,0.00,,---,0.01,VWS V14.00,2013-01-07 04:50:00,
2013-01-06 23:52:00,31.6,24.6,30.19,NW,304,4.0,9.0,75,0.00,,---,0.01,VWS V14.00,2013-01-07 04:52:00,
2013-01-06 23:54:00,31.6,24.6,30.19,NW,304,2.0,9.0,75,0.00,,---,0.01,VWS V14.00,2013-01-07 04:54:00,
2013-01-06 23:55:00,31.6,24.6,30.19,NW,304,0.0,9.0,75,0.00,,---,0.01,VWS V14.00,2013-01-07 04:55:00,
2013-01-06 23:57:00,31.6,24.6,30.19,WNW,301,4.0,9.0,75,0.00,,---,0.01,VWS V14.00,2013-01-07 04:57:00,
2013-01-06 23:59:00,31.6,24.6,30.19,NW,306,2.0,9.0,75,0.00,,---,0.01,VWS V14.00,2013-01-07 04:59:00,